Wetterdaten: Montag, 19.02.2018
Datum Zeit Temp. A. Pool Temp. Feuchte A. Luftdruck Regen Wind Richtung Richtung Sonnenschein ET UV Solar Taupunkt Windchill Windben Empfang
19.02.2018 00:00 -0,8 C 3,9 C 91 % 1024,6 hPa 0,0 l/m 9,5 km/h (2 Bft) NO 46 0 min 0,000 mm 0,0 UV-I 0 W/m -2,1 C -3,9 C 14,5 km/h (3 Bft) 100,00 %
19.02.2018 00:02 -0,8 C 3,9 C 91 % 1024,6 hPa 0,0 l/m 12,8 km/h (3 Bft) O-NO 77 0 min 0,000 mm 0,0 UV-I 0 W/m -2,1 C -6,5 C 19,3 km/h (3 Bft) 100,00 %
19.02.2018 00:03 -0,8 C 3,9 C 91 % 1024,6 hPa 0,0 l/m 10,4 km/h (2 Bft) O-NO 69 0 min 0,000 mm 0,0 UV-I 0 W/m -2,1 C -4,7 C 16,1 km/h (3 Bft) 100,00 %
19.02.2018 00:04 -0,8 C 3,9 C 91 % 1024,6 hPa 0,0 l/m 13,3 km/h (3 Bft) NO 48 0 min 0,000 mm 0,0 UV-I 0 W/m -2,1 C -6,8 C 16,1 km/h (3 Bft) 100,00 %
19.02.2018 00:05 -0,8 C 3,9 C 91 % 1024,6 hPa 0,0 l/m 14,5 km/h (3 Bft) O-NO 61 0 min 0,000 mm 0,0 UV-I 0 W/m -2,1 C -7,6 C 17,7 km/h (3 Bft) 95,83 %
19.02.2018 00:06 -0,8 C 3,9 C 91 % 1024,5 hPa 0,0 l/m 14,1 km/h (3 Bft) NO 46 0 min 0,000 mm 0,0 UV-I 0 W/m -2,1 C -7,4 C 17,7 km/h (3 Bft) 95,65 %
19.02.2018 00:07 -0,8 C 3,9 C 91 % 1024,5 hPa 0,0 l/m 14,0 km/h (3 Bft) N-NO 28 0 min 0,000 mm 0,0 UV-I 0 W/m -2,1 C -7,3 C 20,9 km/h (4 Bft) 100,00 %
19.02.2018 00:08 -0,8 C 3,9 C 90 % 1024,5 hPa 0,0 l/m 11,1 km/h (2 Bft) O-NO 68 0 min 0,000 mm 0,0 UV-I 0 W/m -2,2 C -5,2 C 16,1 km/h (3 Bft) 100,00 %
19.02.2018 00:09 -0,8 C 3,9 C 90 % 1024,5 hPa 0,0 l/m 11,3 km/h (2 Bft) O 83 0 min 0,000 mm 0,0 UV-I 0 W/m -2,2 C -5,4 C 14,5 km/h (3 Bft) 100,00 %
19.02.2018 00:10 -0,8 C 3,9 C 90 % 1024,5 hPa 0,0 l/m 12,5 km/h (3 Bft) NO 50 0 min 0,000 mm 0,0 UV-I 0 W/m -2,2 C -6,3 C 16,1 km/h (3 Bft) 100,00 %
19.02.2018 00:11 -0,8 C 3,9 C 90 % 1024,5 hPa 0,0 l/m 13,3 km/h (3 Bft) O-NO 71 0 min 0,000 mm 0,0 UV-I 0 W/m -2,2 C -6,8 C 19,3 km/h (3 Bft) 100,00 %
19.02.2018 00:12 -0,8 C 3,9 C 90 % 1024,5 hPa 0,0 l/m 16,7 km/h (3 Bft) NO 44 0 min 0,000 mm 0,0 UV-I 0 W/m -2,2 C -9,0 C 22,5 km/h (4 Bft) 100,00 %
19.02.2018 00:13 -0,8 C 3,9 C 90 % 1024,5 hPa 0,0 l/m 12,8 km/h (3 Bft) O-NO 70 0 min 0,000 mm 0,0 UV-I 0 W/m -2,2 C -6,5 C 19,3 km/h (3 Bft) 100,00 %
19.02.2018 00:14 -0,7 C 3,9 C 90 % 1024,4 hPa 0,0 l/m 14,4 km/h (3 Bft) NO 39 0 min 0,000 mm 0,0 UV-I 0 W/m -2,1 C -7,5 C 17,7 km/h (3 Bft) 95,83 %
19.02.2018 00:15 -0,8 C 3,9 C 90 % 1024,4 hPa 0,0 l/m 14,8 km/h (3 Bft) O-NO 68 0 min 0,000 mm 0,0 UV-I 0 W/m -2,2 C -7,8 C 22,5 km/h (4 Bft) 100,00 %
19.02.2018 00:16 -0,8 C 3,9 C 90 % 1024,4 hPa 0,0 l/m 16,4 km/h (3 Bft) O-NO 70 0 min 0,000 mm 0,0 UV-I 0 W/m -2,2 C -8,8 C 20,9 km/h (4 Bft) 100,00 %
19.02.2018 00:17 -0,8 C 3,9 C 90 % 1024,4 hPa 0,0 l/m 14,2 km/h (3 Bft) NO 56 0 min 0,000 mm 0,0 UV-I 0 W/m -2,2 C -7,4 C 19,3 km/h (3 Bft) 100,00 %
19.02.2018 00:18 -0,8 C 3,9 C 90 % 1024,4 hPa 0,0 l/m 15,0 km/h (3 Bft) NO 41 0 min 0,000 mm 0,0 UV-I 0 W/m -2,2 C -8,0 C 20,9 km/h (4 Bft) 100,00 %
19.02.2018 00:19 -0,7 C 3,9 C 90 % 1024,4 hPa 0,0 l/m 13,8 km/h (3 Bft) O-NO 74 0 min 0,000 mm 0,0 UV-I 0 W/m -2,1 C -7,1 C 19,3 km/h (3 Bft) 95,65 %
19.02.2018 00:20 -0,8 C 3,9 C 90 % 1024,4 hPa 0,0 l/m 11,5 km/h (2 Bft) NO 51 0 min 0,000 mm 0,0 UV-I 0 W/m -2,2 C -5,5 C 14,5 km/h (3 Bft) 100,00 %
19.02.2018 00:21 -0,7 C 3,9 C 90 % 1024,5 hPa 0,0 l/m 11,4 km/h (2 Bft) O-NO 67 0 min 0,000 mm 0,0 UV-I 0 W/m -2,1 C -5,4 C 16,1 km/h (3 Bft) 100,00 %
19.02.2018 00:22 -0,7 C 3,9 C 90 % 1024,4 hPa 0,0 l/m 12,1 km/h (2 Bft) NO 49 0 min 0,000 mm 0,0 UV-I 0 W/m -2,1 C -5,9 C 16,1 km/h (3 Bft) 95,83 %
19.02.2018 00:23 -0,7 C 3,9 C 90 % 1024,4 hPa 0,0 l/m 13,4 km/h (3 Bft) NO 51 0 min 0,000 mm 0,0 UV-I 0 W/m -2,1 C -6,8 C 17,7 km/h (3 Bft) 100,00 %
19.02.2018 00:24 -0,7 C 3,9 C 90 % 1024,4 hPa 0,0 l/m 13,4 km/h (3 Bft) NO 46 0 min 0,000 mm 0,0 UV-I 0 W/m -2,1 C -6,8 C 19,3 km/h (3 Bft) 100,00 %
19.02.2018 00:25 -0,7 C 3,9 C 90 % 1024,4 hPa 0,0 l/m 12,8 km/h (3 Bft) N-NO 25 0 min 0,000 mm 0,0 UV-I 0 W/m -2,1 C -6,4 C 17,7 km/h (3 Bft) 100,00 %
19.02.2018 00:26 -0,8 C 3,9 C 90 % 1024,4 hPa 0,0 l/m 10,0 km/h (2 Bft) O-NO 67 0 min 0,000 mm 0,0 UV-I 0 W/m -2,2 C -4,3 C 16,1 km/h (3 Bft) 100,00 %
19.02.2018 00:27 -0,8 C 3,9 C 89 % 1024,4 hPa 0,0 l/m 13,2 km/h (3 Bft) NO 52 0 min 0,000 mm 0,0 UV-I 0 W/m -2,4 C -6,8 C 20,9 km/h (4 Bft) 100,00 %
19.02.2018 00:28 -0,8 C 3,9 C 89 % 1024,4 hPa 0,0 l/m 12,9 km/h (3 Bft) O-NO 75 0 min 0,000 mm 0,0 UV-I 0 W/m -2,4 C -6,6 C 17,7 km/h (3 Bft) 91,67 %
19.02.2018 00:29 -0,8 C 3,9 C 89 % 1024,4 hPa 0,0 l/m 11,1 km/h (2 Bft) NO 53 0 min 0,000 mm 0,0 UV-I 0 W/m -2,4 C -5,2 C 16,1 km/h (3 Bft) 91,67 %
19.02.2018 00:30 -0,8 C 3,9 C 89 % 1024,4 hPa 0,0 l/m 7,8 km/h (2 Bft) NO 46 0 min 0,000 mm 0,0 UV-I 0 W/m -2,4 C -2,3 C 9,7 km/h (2 Bft) 100,00 %
19.02.2018 00:31 -0,8 C 3,9 C 89 % 1024,4 hPa 0,0 l/m 12,0 km/h (2 Bft) NO 39 0 min 0,000 mm 0,0 UV-I 0 W/m -2,4 C -5,9 C 17,7 km/h (3 Bft) 100,00 %
19.02.2018 00:32 -0,8 C 3,9 C 89 % 1024,4 hPa 0,0 l/m 10,6 km/h (2 Bft) O-NO 61 0 min 0,000 mm 0,0 UV-I 0 W/m -2,4 C -4,8 C 16,1 km/h (3 Bft) 100,00 %
19.02.2018 00:33 -0,9 C 3,9 C 89 % 1024,4 hPa 0,0 l/m 8,4 km/h (2 Bft) O-NO 61 0 min 0,000 mm 0,0 UV-I 0 W/m -2,5 C -3,0 C 14,5 km/h (3 Bft) 95,83 %
19.02.2018 00:34 -0,8 C 3,9 C 89 % 1024,4 hPa 0,0 l/m 11,4 km/h (2 Bft) O-NO 58 0 min 0,000 mm 0,0 UV-I 0 W/m -2,4 C -5,5 C 14,5 km/h (3 Bft) 100,00 %
19.02.2018 00:35 -0,8 C 3,9 C 89 % 1024,3 hPa 0,0 l/m 8,9 km/h (2 Bft) O-NO 73 0 min 0,000 mm 0,0 UV-I 0 W/m -2,4 C -3,4 C 14,5 km/h (3 Bft) 100,00 %
19.02.2018 00:36 -0,8 C 3,9 C 88 % 1024,4 hPa 0,0 l/m 11,5 km/h (2 Bft) O-NO 72 0 min 0,000 mm 0,0 UV-I 0 W/m -2,5 C -5,5 C 16,1 km/h (3 Bft) 100,00 %
19.02.2018 00:37 -0,8 C 3,9 C 88 % 1024,3 hPa 0,0 l/m 9,7 km/h (2 Bft) O-NO 65 0 min 0,000 mm 0,0 UV-I 0 W/m -2,5 C -4,1 C 14,5 km/h (3 Bft) 100,00 %
19.02.2018 00:38 -0,8 C 3,9 C 88 % 1024,3 hPa 0,0 l/m 12,8 km/h (3 Bft) O-NO 74 0 min 0,000 mm 0,0 UV-I 0 W/m -2,5 C -6,5 C 16,1 km/h (3 Bft) 100,00 %
19.02.2018 00:39 -0,8 C 3,9 C 88 % 1024,3 hPa 0,0 l/m 12,6 km/h (3 Bft) O-NO 73 0 min 0,000 mm 0,0 UV-I 0 W/m -2,5 C -6,4 C 16,1 km/h (3 Bft) 100,00 %
19.02.2018 00:40 -0,8 C 3,9 C 87 % 1024,3 hPa 0,0 l/m 11,2 km/h (2 Bft) NO 55 0 min 0,000 mm 0,0 UV-I 0 W/m -2,7 C -5,3 C 14,5 km/h (3 Bft) 100,00 %
19.02.2018 00:41 -0,8 C 3,9 C 88 % 1024,3 hPa 0,0 l/m 13,3 km/h (3 Bft) O-NO 76 0 min 0,000 mm 0,0 UV-I 0 W/m -2,5 C -6,8 C 17,7 km/h (3 Bft) 100,00 %
19.02.2018 00:42 -0,8 C 3,9 C 87 % 1024,3 hPa 0,0 l/m 14,3 km/h (3 Bft) O-NO 59 0 min 0,000 mm 0,0 UV-I 0 W/m -2,7 C -7,5 C 17,7 km/h (3 Bft) 100,00 %
19.02.2018 00:43 -0,8 C 3,9 C 87 % 1024,3 hPa 0,0 l/m 12,9 km/h (3 Bft) O-NO 77 0 min 0,000 mm 0,0 UV-I 0 W/m -2,7 C -6,6 C 17,7 km/h (3 Bft) 100,00 %
19.02.2018 00:44 -0,8 C 3,9 C 87 % 1024,3 hPa 0,0 l/m 12,4 km/h (3 Bft) O 80 0 min 0,000 mm 0,0 UV-I 0 W/m -2,7 C -6,2 C 17,7 km/h (3 Bft) 100,00 %
19.02.2018 00:45 -0,8 C 3,9 C 87 % 1024,3 hPa 0,0 l/m 11,1 km/h (2 Bft) O 82 0 min 0,000 mm 0,0 UV-I 0 W/m -2,7 C -5,2 C 16,1 km/h (3 Bft) 100,00 %
19.02.2018 00:46 -0,8 C 3,9 C 87 % 1024,3 hPa 0,0 l/m 9,6 km/h (2 Bft) O-NO 73 0 min 0,000 mm 0,0 UV-I 0 W/m -2,7 C -4,0 C 14,5 km/h (3 Bft) 100,00 %
19.02.2018 00:47 -0,8 C 3,9 C 87 % 1024,2 hPa 0,0 l/m 11,5 km/h (2 Bft) O-NO 76 0 min 0,000 mm 0,0 UV-I 0 W/m -2,7 C -5,5 C 16,1 km/h (3 Bft) 100,00 %
19.02.2018 00:48 -0,8 C 3,9 C 87 % 1024,1 hPa 0,0 l/m 12,8 km/h (3 Bft) O-NO 60 0 min 0,000 mm 0,0 UV-I 0 W/m -2,7 C -6,5 C 14,5 km/h (3 Bft) 100,00 %
19.02.2018 00:49 -0,9 C 3,9 C 87 % 1024,1 hPa 0,0 l/m 12,9 km/h (3 Bft) O-NO 71 0 min 0,000 mm 0,0 UV-I 0 W/m -2,8 C -6,7 C 16,1 km/h (3 Bft) 95,65 %
19.02.2018 00:50 -0,9 C 3,9 C 87 % 1024,2 hPa 0,0 l/m 11,2 km/h (2 Bft) O 90 0 min 0,000 mm 0,0 UV-I 0 W/m -2,8 C -5,4 C 16,1 km/h (3 Bft) 100,00 %
19.02.2018 00:51 -0,9 C 3,9 C 87 % 1024,2 hPa 0,0 l/m 12,7 km/h (3 Bft) O 96 0 min 0,000 mm 0,0 UV-I 0 W/m -2,8 C -6,5 C 17,7 km/h (3 Bft) 100,00 %
19.02.2018 00:52 -0,9 C 3,9 C 87 % 1024,1 hPa 0,0 l/m 13,8 km/h (3 Bft) O-NO 67 0 min 0,000 mm 0,0 UV-I 0 W/m -2,8 C -7,3 C 17,7 km/h (3 Bft) 100,00 %
19.02.2018 00:53 -0,9 C 3,9 C 87 % 1024,2 hPa 0,0 l/m 10,3 km/h (2 Bft) O-NO 71 0 min 0,000 mm 0,0 UV-I 0 W/m -2,8 C -4,7 C 14,5 km/h (3 Bft) 95,65 %
19.02.2018 00:54 -0,9 C 3,9 C 87 % 1024,1 hPa 0,0 l/m 11,8 km/h (2 Bft) O-NO 76 0 min 0,000 mm 0,0 UV-I 0 W/m -2,8 C -5,9 C 16,1 km/h (3 Bft) 100,00 %
19.02.2018 00:55 -0,9 C 3,9 C 87 % 1024,1 hPa 0,0 l/m 12,1 km/h (2 Bft) O-NO 67 0 min 0,000 mm 0,0 UV-I 0 W/m -2,8 C -6,1 C 16,1 km/h (3 Bft) 100,00 %
19.02.2018 00:56 -0,9 C 3,9 C 88 % 1024,1 hPa 0,0 l/m 10,3 km/h (2 Bft) O-NO 71 0 min 0,000 mm 0,0 UV-I 0 W/m -2,6 C -4,7 C 12,9 km/h (3 Bft) 100,00 %
19.02.2018 00:57 -1,0 C 3,9 C 88 % 1024,1 hPa 0,0 l/m 11,3 km/h (2 Bft) O-NO 61 0 min 0,000 mm 0,0 UV-I 0 W/m -2,7 C -5,6 C 17,7 km/h (3 Bft) 95,65 %
19.02.2018 00:58 -1,0 C 3,9 C 88 % 1024,1 hPa 0,0 l/m 11,8 km/h (2 Bft) O-NO 69 0 min 0,000 mm 0,0 UV-I 0 W/m -2,7 C -6,0 C 16,1 km/h (3 Bft) 100,00 %
19.02.2018 00:59 -1,0 C 3,9 C 88 % 1024,1 hPa 0,0 l/m 15,1 km/h (3 Bft) O-NO 78 0 min 0,000 mm 0,0 UV-I 0 W/m -2,7 C -8,3 C 17,7 km/h (3 Bft) 100,00 %
19.02.2018 01:00 -0,9 C 3,9 C 88 % 1024,1 hPa 0,0 l/m 13,5 km/h (3 Bft) O-NO 72 0 min 0,000 mm 0,0 UV-I 0 W/m -2,6 C -7,1 C 17,7 km/h (3 Bft) 100,00 %
19.02.2018 01:01 -1,0 C 3,9 C 88 % 1024,1 hPa 0,0 l/m 13,0 km/h (3 Bft) O 92 0 min 0,000 mm 0,0 UV-I 0 W/m -2,7 C -6,9 C 17,7 km/h (3 Bft) 100,00 %
19.02.2018 01:02 -1,0 C 3,9 C 88 % 1024,1 hPa 0,2 l/m 16,6 km/h (3 Bft) O 80 0 min 0,000 mm 0,0 UV-I 0 W/m -2,7 C -9,1 C 20,9 km/h (4 Bft) 100,00 %
19.02.2018 01:03 -0,9 C 3,9 C 88 % 1024,1 hPa 0,0 l/m 14,8 km/h (3 Bft) O-NO 74 0 min 0,000 mm 0,0 UV-I 0 W/m -2,6 C -7,9 C 17,7 km/h (3 Bft) 100,00 %
19.02.2018 01:04 -0,9 C 3,9 C 88 % 1024,0 hPa 0,0 l/m 12,7 km/h (3 Bft) NO 53 0 min 0,000 mm 0,0 UV-I 0 W/m -2,6 C -6,5 C 16,1 km/h (3 Bft) 100,00 %
19.02.2018 01:05 -0,9 C 3,9 C 87 % 1024,1 hPa 0,0 l/m 9,1 km/h (2 Bft) O-NO 71 0 min 0,000 mm 0,0 UV-I 0 W/m -2,8 C -3,6 C 14,5 km/h (3 Bft) 95,83 %
19.02.2018 01:06 -0,9 C 3,9 C 87 % 1024,0 hPa 0,0 l/m 11,6 km/h (2 Bft) O-NO 67 0 min 0,000 mm 0,0 UV-I 0 W/m -2,8 C -5,7 C 16,1 km/h (3 Bft) 100,00 %
19.02.2018 01:07 -0,9 C 3,9 C 87 % 1024,0 hPa 0,0 l/m 13,0 km/h (3 Bft) O-NO 76 0 min 0,000 mm 0,0 UV-I 0 W/m -2,8 C -6,8 C 16,1 km/h (3 Bft) 100,00 %
19.02.2018 01:08 -0,9 C 3,9 C 88 % 1024,1 hPa 0,0 l/m 15,6 km/h (3 Bft) O-NO 73 0 min 0,000 mm 0,0 UV-I 0 W/m -2,6 C -8,4 C 19,3 km/h (3 Bft) 100,00 %
19.02.2018 01:09 -0,9 C 3,9 C 88 % 1024,0 hPa 0,0 l/m 15,5 km/h (3 Bft) O-NO 68 0 min 0,000 mm 0,0 UV-I 0 W/m -2,6 C -8,4 C 17,7 km/h (3 Bft) 100,00 %
19.02.2018 01:10 -0,9 C 3,9 C 87 % 1024,0 hPa 0,0 l/m 14,3 km/h (3 Bft) O 83 0 min 0,000 mm 0,0 UV-I 0 W/m -2,8 C -7,6 C 17,7 km/h (3 Bft) 100,00 %
19.02.2018 01:11 -0,9 C 3,9 C 87 % 1024,0 hPa 0,0 l/m 11,3 km/h (2 Bft) O 86 0 min 0,000 mm 0,0 UV-I 0 W/m -2,8 C -5,5 C 16,1 km/h (3 Bft) 95,83 %
19.02.2018 01:12 -0,9 C 3,9 C 87 % 1024,0 hPa 0,0 l/m 13,1 km/h (3 Bft) NO 54 0 min 0,000 mm 0,0 UV-I 0 W/m -2,8 C -6,8 C 16,1 km/h (3 Bft) 100,00 %
19.02.2018 01:13 -0,9 C 3,9 C 87 % 1024,0 hPa 0,0 l/m 13,3 km/h (3 Bft) O-NO 65 0 min 0,000 mm 0,0 UV-I 0 W/m -2,8 C -7,0 C 17,7 km/h (3 Bft) 100,00 %
19.02.2018 01:14 -1,0 C 3,9 C 88 % 1024,0 hPa 0,0 l/m 13,1 km/h (3 Bft) O-NO 69 0 min 0,000 mm 0,0 UV-I 0 W/m -2,7 C -6,9 C 16,1 km/h (3 Bft) 95,65 %
19.02.2018 01:15 -1,0 C 3,9 C 88 % 1024,0 hPa 0,0 l/m 11,3 km/h (2 Bft) O 91 0 min 0,000 mm 0,0 UV-I 0 W/m -2,7 C -5,6 C 14,5 km/h (3 Bft) 100,00 %
19.02.2018 01:16 -1,0 C 3,9 C 88 % 1024,0 hPa 0,0 l/m 14,4 km/h (3 Bft) O-NO 57 0 min 0,000 mm 0,0 UV-I 0 W/m -2,7 C -7,8 C 17,7 km/h (3 Bft) 100,00 %
19.02.2018 01:17 -1,1 C 3,9 C 88 % 1024,0 hPa 0,0 l/m 12,0 km/h (2 Bft) O-SO 103 0 min 0,000 mm 0,0 UV-I 0 W/m -2,8 C -6,3 C 14,5 km/h (3 Bft) 100,00 %
19.02.2018 01:18 -1,1 C 3,9 C 88 % 1024,0 hPa 0,0 l/m 13,5 km/h (3 Bft) O-NO 65 0 min 0,000 mm 0,0 UV-I 0 W/m -2,8 C -7,3 C 17,7 km/h (3 Bft) 100,00 %
19.02.2018 01:19 -1,1 C 3,9 C 88 % 1024,0 hPa 0,0 l/m 13,7 km/h (3 Bft) O-NO 73 0 min 0,000 mm 0,0 UV-I 0 W/m -2,8 C -7,5 C 19,3 km/h (3 Bft) 100,00 %
19.02.2018 01:20 -1,1 C 3,9 C 88 % 1024,0 hPa 0,0 l/m 15,6 km/h (3 Bft) O-NO 68 0 min 0,000 mm 0,0 UV-I 0 W/m -2,8 C -8,7 C 19,3 km/h (3 Bft) 95,65 %
19.02.2018 01:21 -1,1 C 3,9 C 88 % 1024,0 hPa 0,0 l/m 12,5 km/h (3 Bft) NO 44 0 min 0,000 mm 0,0 UV-I 0 W/m -2,8 C -6,6 C 16,1 km/h (3 Bft) 95,83 %
19.02.2018 01:22 -1,1 C 3,9 C 88 % 1023,9 hPa 0,0 l/m 14,6 km/h (3 Bft) O-NO 74 0 min 0,000 mm 0,0 UV-I 0 W/m -2,8 C -8,1 C 17,7 km/h (3 Bft) 100,00 %
19.02.2018 01:23 -1,1 C 3,9 C 88 % 1023,9 hPa 0,0 l/m 18,4 km/h (3 Bft) O-NO 78 0 min 0,000 mm 0,0 UV-I 0 W/m -2,8 C -10,3 C 22,5 km/h (4 Bft) 100,00 %
19.02.2018 01:24 -1,1 C 3,9 C 88 % 1023,9 hPa 0,0 l/m 18,7 km/h (3 Bft) O-NO 76 0 min 0,000 mm 0,0 UV-I 0 W/m -2,8 C -10,4 C 22,5 km/h (4 Bft) 100,00 %
19.02.2018 01:25 -1,1 C 3,9 C 89 % 1023,9 hPa 0,0 l/m 17,1 km/h (3 Bft) O-NO 69 0 min 0,000 mm 0,0 UV-I 0 W/m -2,7 C -9,6 C 22,5 km/h (4 Bft) 100,00 %
19.02.2018 01:26 -1,1 C 3,9 C 89 % 1023,9 hPa 0,0 l/m 15,1 km/h (3 Bft) O-NO 71 0 min 0,000 mm 0,0 UV-I 0 W/m -2,7 C -8,4 C 17,7 km/h (3 Bft) 100,00 %
19.02.2018 01:27 -1,1 C 3,9 C 89 % 1023,9 hPa 0,0 l/m 14,5 km/h (3 Bft) O-NO 67 0 min 0,000 mm 0,0 UV-I 0 W/m -2,7 C -8,0 C 17,7 km/h (3 Bft) 100,00 %
19.02.2018 01:28 -1,1 C 3,9 C 89 % 1023,9 hPa 0,0 l/m 15,7 km/h (3 Bft) O-NO 71 0 min 0,000 mm 0,0 UV-I 0 W/m -2,7 C -8,7 C 19,3 km/h (3 Bft) 100,00 %
19.02.2018 01:29 -1,1 C 3,9 C 89 % 1023,8 hPa 0,0 l/m 17,1 km/h (3 Bft) O 86 0 min 0,000 mm 0,0 UV-I 0 W/m -2,7 C -9,6 C 20,9 km/h (4 Bft) 100,00 %
19.02.2018 01:30 -1,1 C 3,9 C 89 % 1023,9 hPa 0,0 l/m 16,1 km/h (3 Bft) O-NO 66 0 min 0,000 mm 0,0 UV-I 0 W/m -2,7 C -9,0 C 20,9 km/h (4 Bft) 100,00 %
19.02.2018 01:31 -1,1 C 3,9 C 89 % 1023,8 hPa 0,0 l/m 17,3 km/h (3 Bft) O-NO 64 0 min 0,000 mm 0,0 UV-I 0 W/m -2,7 C -9,7 C 20,9 km/h (4 Bft) 96,30 %
19.02.2018 01:32 -1,1 C 3,9 C 89 % 1023,8 hPa 0,0 l/m 18,5 km/h (3 Bft) O-NO 62 0 min 0,000 mm 0,0 UV-I 0 W/m -2,7 C -10,3 C 20,9 km/h (4 Bft) 100,00 %
19.02.2018 01:33 -1,1 C 3,9 C 89 % 1023,8 hPa 0,0 l/m 17,3 km/h (3 Bft) O-NO 73 0 min 0,000 mm 0,0 UV-I 0 W/m -2,7 C -9,7 C 22,5 km/h (4 Bft) 95,83 %
19.02.2018 01:34 -1,1 C 3,9 C 89 % 1023,8 hPa 0,0 l/m 17,0 km/h (3 Bft) O-NO 57 0 min 0,000 mm 0,0 UV-I 0 W/m -2,7 C -9,5 C 19,3 km/h (3 Bft) 95,83 %
19.02.2018 01:35 -1,1 C 3,9 C 89 % 1023,8 hPa 0,0 l/m 16,4 km/h (3 Bft) O-NO 67 0 min 0,000 mm 0,0 UV-I 0 W/m -2,7 C -9,2 C 20,9 km/h (4 Bft) 100,00 %
19.02.2018 01:36 -1,1 C 3,9 C 89 % 1023,8 hPa 0,0 l/m 17,0 km/h (3 Bft) O-NO 61 0 min 0,000 mm 0,0 UV-I 0 W/m -2,7 C -9,5 C 20,9 km/h (4 Bft) 95,83 %
19.02.2018 01:37 -1,1 C 3,9 C 89 % 1023,8 hPa 0,0 l/m 17,4 km/h (3 Bft) NO 46 0 min 0,000 mm 0,0 UV-I 0 W/m -2,7 C -9,7 C 22,5 km/h (4 Bft) 95,65 %
19.02.2018 01:38 -1,1 C 3,9 C 89 % 1023,8 hPa 0,0 l/m 14,8 km/h (3 Bft) O-NO 60 0 min 0,000 mm 0,0 UV-I 0 W/m -2,7 C -8,2 C 19,3 km/h (3 Bft) 95,83 %
19.02.2018 01:39 -1,1 C 3,9 C 89 % 1023,8 hPa 0,0 l/m 13,1 km/h (3 Bft) O-NO 75 0 min 0,000 mm 0,0 UV-I 0 W/m -2,7 C -7,1 C 17,7 km/h (3 Bft) 95,65 %
19.02.2018 01:40 -1,1 C 3,9 C 89 % 1023,8 hPa 0,0 l/m 14,8 km/h (3 Bft) O 84 0 min 0,000 mm 0,0 UV-I 0 W/m -2,7 C -8,2 C 19,3 km/h (3 Bft) 95,83 %
19.02.2018 01:41 -1,2 C 3,9 C 89 % 1023,8 hPa 0,0 l/m 15,2 km/h (3 Bft) O 92 0 min 0,000 mm 0,0 UV-I 0 W/m -2,8 C -8,6 C 17,7 km/h (3 Bft) 95,65 %
19.02.2018 01:42 -1,2 C 3,9 C 89 % 1023,8 hPa 0,0 l/m 16,2 km/h (3 Bft) NO 46 0 min 0,000 mm 0,0 UV-I 0 W/m -2,8 C -9,2 C 22,5 km/h (4 Bft) 100,00 %
19.02.2018 01:43 -1,2 C 3,9 C 89 % 1023,8 hPa 0,0 l/m 15,4 km/h (3 Bft) O 101 0 min 0,000 mm 0,0 UV-I 0 W/m -2,8 C -8,7 C 19,3 km/h (3 Bft) 96,30 %
19.02.2018 01:44 -1,2 C 3,9 C 89 % 1023,8 hPa 0,0 l/m 11,2 km/h (2 Bft) O-NO 67 0 min 0,000 mm 0,0 UV-I 0 W/m -2,8 C -5,8 C 19,3 km/h (3 Bft) 100,00 %
19.02.2018 01:45 -1,2 C 3,9 C 89 % 1023,8 hPa 0,0 l/m 12,3 km/h (3 Bft) NO 42 0 min 0,000 mm 0,0 UV-I 0 W/m -2,8 C -6,6 C 16,1 km/h (3 Bft) 95,65 %
19.02.2018 01:46 -1,2 C 3,9 C 89 % 1023,7 hPa 0,0 l/m 16,7 km/h (3 Bft) O-NO 67 0 min 0,000 mm 0,0 UV-I 0 W/m -2,8 C -9,4 C 24,1 km/h (4 Bft) 95,83 %
19.02.2018 01:47 -1,2 C 3,9 C 89 % 1023,7 hPa 0,0 l/m 16,7 km/h (3 Bft) O 81 0 min 0,000 mm 0,0 UV-I 0 W/m -2,8 C -9,4 C 20,9 km/h (4 Bft) 100,00 %
19.02.2018 01:48 -1,2 C 3,9 C 89 % 1023,7 hPa 0,0 l/m 13,9 km/h (3 Bft) O 82 0 min 0,000 mm 0,0 UV-I 0 W/m -2,8 C -7,7 C 17,7 km/h (3 Bft) 95,83 %
19.02.2018 01:49 -1,2 C 3,9 C 89 % 1023,7 hPa 0,0 l/m 15,6 km/h (3 Bft) O 82 0 min 0,000 mm 0,0 UV-I 0 W/m -2,8 C -8,8 C 19,3 km/h (3 Bft) 100,00 %
19.02.2018 01:50 -1,2 C 3,9 C 89 % 1023,7 hPa 0,0 l/m 16,2 km/h (3 Bft) NO 56 0 min 0,000 mm 0,0 UV-I 0 W/m -2,8 C -9,2 C 20,9 km/h (4 Bft) 93,33 %
19.02.2018 01:51 -1,2 C 3,9 C 89 % 1023,7 hPa 0,0 l/m 15,5 km/h (3 Bft) O 84 0 min 0,000 mm 0,0 UV-I 0 W/m -2,8 C -8,7 C 19,3 km/h (3 Bft) 95,83 %
19.02.2018 01:52 -1,2 C 3,9 C 89 % 1023,7 hPa 0,0 l/m 17,4 km/h (3 Bft) O 85 0 min 0,000 mm 0,0 UV-I 0 W/m -2,8 C -9,8 C 20,9 km/h (4 Bft) 95,65 %
19.02.2018 01:53 -1,2 C 3,9 C 89 % 1023,7 hPa 0,0 l/m 15,1 km/h (3 Bft) O 80 0 min 0,000 mm 0,0 UV-I 0 W/m -2,8 C -8,5 C 19,3 km/h (3 Bft) 100,00 %
19.02.2018 01:54 -1,2 C 3,9 C 90 % 1023,7 hPa 0,0 l/m 17,0 km/h (3 Bft) O 92 0 min 0,000 mm 0,0 UV-I 0 W/m -2,6 C -9,6 C 22,5 km/h (4 Bft) 95,65 %
19.02.2018 01:55 -1,2 C 3,9 C 89 % 1023,7 hPa 0,0 l/m 17,8 km/h (3 Bft) O-NO 73 0 min 0,000 mm 0,0 UV-I 0 W/m -2,8 C -10,1 C 20,9 km/h (4 Bft) 100,00 %
19.02.2018 01:56 -1,2 C 3,9 C 89 % 1023,7 hPa 0,0 l/m 14,1 km/h (3 Bft) O-NO 61 0 min 0,000 mm 0,0 UV-I 0 W/m -2,8 C -7,9 C 17,7 km/h (3 Bft) 95,65 %
19.02.2018 01:57 -1,2 C 3,9 C 89 % 1023,7 hPa 0,0 l/m 14,6 km/h (3 Bft) NO 36 0 min 0,000 mm 0,0 UV-I 0 W/m -2,8 C -8,2 C 17,7 km/h (3 Bft) 100,00 %
19.02.2018 01:58 -1,2 C 3,9 C 89 % 1023,6 hPa 0,0 l/m 18,7 km/h (3 Bft) O-NO 73 0 min 0,000 mm 0,0 UV-I 0 W/m -2,8 C -10,5 C 24,1 km/h (4 Bft) 95,65 %
19.02.2018 01:59 -1,2 C 3,9 C 89 % 1023,6 hPa 0,0 l/m 16,7 km/h (3 Bft) O 82 0 min 0,000 mm 0,0 UV-I 0 W/m -2,8 C -9,4 C 22,5 km/h (4 Bft) 95,83 %
19.02.2018 02:00 -1,2 C 3,9 C 89 % 1023,6 hPa 0,0 l/m 10,6 km/h (2 Bft) O 92 0 min 0,000 mm 0,0 UV-I 0 W/m -2,8 C -5,3 C 14,5 km/h (3 Bft) 100,00 %
19.02.2018 02:01 -1,2 C 3,9 C 89 % 1023,6 hPa 0,0 l/m 15,1 km/h (3 Bft) NO 55 0 min 0,025 mm 0,0 UV-I 0 W/m -2,8 C -8,5 C 19,3 km/h (3 Bft) 91,67 %
19.02.2018 02:02 -1,2 C 3,9 C 89 % 1023,6 hPa 0,0 l/m 15,5 km/h (3 Bft) O-NO 73 0 min 0,000 mm 0,0 UV-I 0 W/m -2,8 C -8,7 C 20,9 km/h (4 Bft) 100,00 %
19.02.2018 02:03 -1,2 C 3,9 C 89 % 1023,6 hPa 0,0 l/m 19,0 km/h (3 Bft) O-NO 69 0 min 0,000 mm 0,0 UV-I 0 W/m -2,8 C -10,7 C 22,5 km/h (4 Bft) 95,83 %
19.02.2018 02:04 -1,2 C 3,9 C 89 % 1023,6 hPa 0,0 l/m 19,4 km/h (3 Bft) O-NO 78 0 min 0,000 mm 0,0 UV-I 0 W/m -2,8 C -10,9 C 25,7 km/h (4 Bft) 100,00 %
19.02.2018 02:05 -1,2 C 3,9 C 89 % 1023,6 hPa 0,0 l/m 16,3 km/h (3 Bft) O-NO 59 0 min 0,000 mm 0,0 UV-I 0 W/m -2,8 C -9,2 C 19,3 km/h (3 Bft) 100,00 %
19.02.2018 02:06 -1,2 C 3,9 C 89 % 1023,6 hPa 0,0 l/m 14,9 km/h (3 Bft) O-NO 67 0 min 0,000 mm 0,0 UV-I 0 W/m -2,8 C -8,4 C 19,3 km/h (3 Bft) 100,00 %
19.02.2018 02:07 -1,2 C 3,9 C 89 % 1023,5 hPa 0,0 l/m 18,3 km/h (3 Bft) O 81 0 min 0,000 mm 0,0 UV-I 0 W/m -2,8 C -10,3 C 24,1 km/h (4 Bft) 100,00 %
19.02.2018 02:08 -1,2 C 3,9 C 89 % 1023,5 hPa 0,0 l/m 12,2 km/h (2 Bft) O-NO 63 0 min 0,000 mm 0,0 UV-I 0 W/m -2,8 C -6,5 C 17,7 km/h (3 Bft) 100,00 %
19.02.2018 02:09 -1,2 C 3,9 C 89 % 1023,6 hPa 0,0 l/m 17,4 km/h (3 Bft) O-NO 76 0 min 0,000 mm 0,0 UV-I 0 W/m -2,8 C -9,8 C 20,9 km/h (4 Bft) 91,30 %
19.02.2018 02:10 -1,2 C 3,9 C 89 % 1023,6 hPa 0,0 l/m 16,8 km/h (3 Bft) O 83 0 min 0,000 mm 0,0 UV-I 0 W/m -2,8 C -9,5 C 20,9 km/h (4 Bft) 100,00 %
19.02.2018 02:11 -1,2 C 3,9 C 89 % 1023,5 hPa 0,0 l/m 16,3 km/h (3 Bft) O 79 0 min 0,000 mm 0,0 UV-I 0 W/m -2,8 C -9,2 C 19,3 km/h (3 Bft) 100,00 %
19.02.2018 02:12 -1,3 C 3,9 C 89 % 1023,6 hPa 0,0 l/m 15,3 km/h (3 Bft) O-NO 59 0 min 0,000 mm 0,0 UV-I 0 W/m -2,9 C -8,7 C 17,7 km/h (3 Bft) 95,83 %
19.02.2018 02:13 -1,3 C 3,9 C 89 % 1023,6 hPa 0,0 l/m 13,3 km/h (3 Bft) NO 55 0 min 0,000 mm 0,0 UV-I 0 W/m -2,9 C -7,4 C 19,3 km/h (3 Bft) 100,00 %
19.02.2018 02:14 -1,3 C 3,9 C 90 % 1023,5 hPa 0,0 l/m 14,2 km/h (3 Bft) O-NO 59 0 min 0,000 mm 0,0 UV-I 0 W/m -2,7 C -8,0 C 19,3 km/h (3 Bft) 100,00 %
19.02.2018 02:15 -1,3 C 3,9 C 90 % 1023,5 hPa 0,0 l/m 13,8 km/h (3 Bft) O 80 0 min 0,000 mm 0,0 UV-I 0 W/m -2,7 C -7,8 C 16,1 km/h (3 Bft) 95,65 %
19.02.2018 02:16 -1,3 C 3,9 C 90 % 1023,5 hPa 0,0 l/m 12,5 km/h (3 Bft) O-NO 60 0 min 0,000 mm 0,0 UV-I 0 W/m -2,7 C -6,9 C 17,7 km/h (3 Bft) 100,00 %
19.02.2018 02:17 -1,3 C 3,9 C 90 % 1023,5 hPa 0,0 l/m 12,9 km/h (3 Bft) O-NO 73 0 min 0,000 mm 0,0 UV-I 0 W/m -2,7 C -7,2 C 17,7 km/h (3 Bft) 100,00 %
19.02.2018 02:18 -1,3 C 3,9 C 90 % 1023,5 hPa 0,0 l/m 12,1 km/h (2 Bft) O-NO 67 0 min 0,000 mm 0,0 UV-I 0 W/m -2,7 C -6,6 C 16,1 km/h (3 Bft) 100,00 %
19.02.2018 02:19 -1,3 C 3,9 C 90 % 1023,5 hPa 0,0 l/m 12,7 km/h (3 Bft) NO 53 0 min 0,000 mm 0,0 UV-I 0 W/m -2,7 C -7,0 C 17,7 km/h (3 Bft) 96,15 %
19.02.2018 02:20 -1,3 C 3,9 C 90 % 1023,4 hPa 0,0 l/m 12,1 km/h (2 Bft) O 82 0 min 0,000 mm 0,0 UV-I 0 W/m -2,7 C -6,6 C 14,5 km/h (3 Bft) 100,00 %
19.02.2018 02:21 -1,3 C 3,9 C 90 % 1023,4 hPa 0,0 l/m 9,5 km/h (2 Bft) O-NO 72 0 min 0,000 mm 0,0 UV-I 0 W/m -2,7 C -4,4 C 12,9 km/h (3 Bft) 91,30 %
19.02.2018 02:22 -1,4 C 3,9 C 90 % 1023,5 hPa 0,0 l/m 12,3 km/h (3 Bft) O-NO 67 0 min 0,000 mm 0,0 UV-I 0 W/m -2,8 C -6,8 C 22,5 km/h (4 Bft) 100,00 %
19.02.2018 02:23 -1,4 C 3,9 C 90 % 1023,5 hPa 0,0 l/m 14,3 km/h (3 Bft) O-NO 76 0 min 0,000 mm 0,0 UV-I 0 W/m -2,8 C -8,2 C 19,3 km/h (3 Bft) 92,31 %
19.02.2018 02:24 -1,4 C 3,9 C 90 % 1023,5 hPa 0,0 l/m 12,0 km/h (2 Bft) O 91 0 min 0,000 mm 0,0 UV-I 0 W/m -2,8 C -6,6 C 14,5 km/h (3 Bft) 100,00 %
19.02.2018 02:25 -1,4 C 3,9 C 91 % 1023,5 hPa 0,0 l/m 12,6 km/h (3 Bft) NO 53 0 min 0,000 mm 0,0 UV-I 0 W/m -2,7 C -7,1 C 16,1 km/h (3 Bft) 93,33 %
19.02.2018 02:26 -1,4 C 3,9 C 91 % 1023,5 hPa 0,0 l/m 13,0 km/h (3 Bft) NO 40 0 min 0,000 mm 0,0 UV-I 0 W/m -2,7 C -7,3 C 19,3 km/h (3 Bft) 100,00 %
19.02.2018 02:27 -1,4 C 3,9 C 91 % 1023,5 hPa 0,0 l/m 16,3 km/h (3 Bft) NO 44 0 min 0,000 mm 0,0 UV-I 0 W/m -2,7 C -9,5 C 20,9 km/h (4 Bft) 95,83 %
19.02.2018 02:28 -1,4 C 3,9 C 91 % 1023,5 hPa 0,0 l/m 11,9 km/h (2 Bft) O-NO 64 0 min 0,000 mm 0,0 UV-I 0 W/m -2,7 C -6,5 C 17,7 km/h (3 Bft) 95,65 %
19.02.2018 02:29 -1,4 C 3,9 C 90 % 1023,4 hPa 0,0 l/m 13,5 km/h (3 Bft) O-NO 57 0 min 0,000 mm 0,0 UV-I 0 W/m -2,8 C -7,7 C 19,3 km/h (3 Bft) 95,83 %
19.02.2018 02:30 -1,4 C 3,9 C 91 % 1023,4 hPa 0,0 l/m 13,3 km/h (3 Bft) O 80 0 min 0,000 mm 0,0 UV-I 0 W/m -2,7 C -7,6 C 17,7 km/h (3 Bft) 100,00 %
19.02.2018 02:31 -1,4 C 3,9 C 91 % 1023,4 hPa 0,0 l/m 10,0 km/h (2 Bft) O-NO 68 0 min 0,000 mm 0,0 UV-I 0 W/m -2,7 C -5,0 C 14,5 km/h (3 Bft) 95,83 %
19.02.2018 02:32 -1,4 C 3,9 C 91 % 1023,4 hPa 0,0 l/m 15,0 km/h (3 Bft) O-NO 57 0 min 0,000 mm 0,0 UV-I 0 W/m -2,7 C -8,7 C 20,9 km/h (4 Bft) 100,00 %
19.02.2018 02:33 -1,4 C 3,9 C 91 % 1023,4 hPa 0,0 l/m 12,7 km/h (3 Bft) O-NO 70 0 min 0,000 mm 0,0 UV-I 0 W/m -2,7 C -7,1 C 16,1 km/h (3 Bft) 95,83 %
19.02.2018 02:34 -1,4 C 3,9 C 91 % 1023,3 hPa 0,0 l/m 13,8 km/h (3 Bft) O 84 0 min 0,000 mm 0,0 UV-I 0 W/m -2,7 C -7,9 C 17,7 km/h (3 Bft) 95,65 %
19.02.2018 02:35 -1,4 C 3,9 C 91 % 1023,3 hPa 0,0 l/m 15,4 km/h (3 Bft) O 83 0 min 0,000 mm 0,0 UV-I 0 W/m -2,7 C -8,9 C 20,9 km/h (4 Bft) 100,00 %
19.02.2018 02:36 -1,4 C 3,9 C 90 % 1023,3 hPa 0,0 l/m 15,2 km/h (3 Bft) O-NO 65 0 min 0,000 mm 0,0 UV-I 0 W/m -2,8 C -8,8 C 20,9 km/h (4 Bft) 96,15 %
19.02.2018 02:37 -1,4 C 3,9 C 91 % 1023,3 hPa 0,0 l/m 15,3 km/h (3 Bft) O-NO 75 0 min 0,000 mm 0,0 UV-I 0 W/m -2,7 C -8,9 C 20,9 km/h (4 Bft) 100,00 %
19.02.2018 02:38 -1,4 C 3,9 C 90 % 1023,3 hPa 0,0 l/m 14,1 km/h (3 Bft) O-NO 63 0 min 0,000 mm 0,0 UV-I 0 W/m -2,8 C -8,1 C 16,1 km/h (3 Bft) 91,30 %
19.02.2018 02:39 -1,4 C 3,9 C 90 % 1023,3 hPa 0,0 l/m 17,6 km/h (3 Bft) O-NO 76 0 min 0,000 mm 0,0 UV-I 0 W/m -2,8 C -10,2 C 20,9 km/h (4 Bft) 100,00 %
19.02.2018 02:40 -1,4 C 3,9 C 90 % 1023,2 hPa 0,0 l/m 18,8 km/h (3 Bft) O-NO 68 0 min 0,000 mm 0,0 UV-I 0 W/m -2,8 C -10,8 C 20,9 km/h (4 Bft) 91,30 %
19.02.2018 02:41 -1,4 C 3,9 C 90 % 1023,2 hPa 0,0 l/m 18,7 km/h (3 Bft) O-NO 69 0 min 0,000 mm 0,0 UV-I 0 W/m -2,8 C -10,8 C 22,5 km/h (4 Bft) 100,00 %
19.02.2018 02:42 -1,4 C 3,9 C 90 % 1023,2 hPa 0,0 l/m 18,3 km/h (3 Bft) O 86 0 min 0,000 mm 0,0 UV-I 0 W/m -2,8 C -10,6 C 24,1 km/h (4 Bft) 95,65 %
19.02.2018 02:43 -1,4 C 3,9 C 90 % 1023,1 hPa 0,0 l/m 19,2 km/h (3 Bft) O-NO 61 0 min 0,000 mm 0,0 UV-I 0 W/m -2,8 C -11,0 C 24,1 km/h (4 Bft) 92,59 %
19.02.2018 02:44 -1,4 C 3,9 C 89 % 1023,1 hPa 0,0 l/m 13,8 km/h (3 Bft) O-NO 76 0 min 0,000 mm 0,0 UV-I 0 W/m -3,0 C -7,9 C 19,3 km/h (3 Bft) 100,00 %
19.02.2018 02:45 -1,4 C 3,9 C 89 % 1023,1 hPa 0,0 l/m 16,9 km/h (3 Bft) O-NO 71 0 min 0,000 mm 0,0 UV-I 0 W/m -3,0 C -9,8 C 22,5 km/h (4 Bft) 95,83 %
19.02.2018 02:46 -1,4 C 3,9 C 89 % 1023,2 hPa 0,0 l/m 17,2 km/h (3 Bft) NO 55 0 min 0,000 mm 0,0 UV-I 0 W/m -3,0 C -10,0 C 24,1 km/h (4 Bft) 100,00 %
19.02.2018 02:47 -1,4 C 3,9 C 89 % 1023,1 hPa 0,0 l/m 19,1 km/h (3 Bft) O-NO 75 0 min 0,000 mm 0,0 UV-I 0 W/m -3,0 C -11,0 C 22,5 km/h (4 Bft) 93,33 %
19.02.2018 02:48 -1,4 C 3,9 C 89 % 1023,2 hPa 0,0 l/m 15,9 km/h (3 Bft) O-NO 78 0 min 0,000 mm 0,0 UV-I 0 W/m -3,0 C -9,2 C 20,9 km/h (4 Bft) 100,00 %
19.02.2018 02:49 -1,4 C 3,9 C 89 % 1023,1 hPa 0,0 l/m 14,9 km/h (3 Bft) O-NO 61 0 min 0,000 mm 0,0 UV-I 0 W/m -3,0 C -8,6 C 19,3 km/h (3 Bft) 96,15 %
19.02.2018 02:50 -1,4 C 3,9 C 89 % 1023,2 hPa 0,0 l/m 13,6 km/h (3 Bft) O-NO 71 0 min 0,000 mm 0,0 UV-I 0 W/m -3,0 C -7,8 C 19,3 km/h (3 Bft) 100,00 %
19.02.2018 02:51 -1,4 C 3,9 C 88 % 1023,2 hPa 0,0 l/m 13,9 km/h (3 Bft) O-NO 63 0 min 0,000 mm 0,0 UV-I 0 W/m -3,1 C -8,0 C 20,9 km/h (4 Bft) 95,65 %
19.02.2018 02:52 -1,4 C 3,9 C 88 % 1023,1 hPa 0,0 l/m 15,7 km/h (3 Bft) O-NO 57 0 min 0,000 mm 0,0 UV-I 0 W/m -3,1 C -9,1 C 25,7 km/h (4 Bft) 96,00 %
19.02.2018 02:53 -1,4 C 3,9 C 88 % 1023,1 hPa 0,0 l/m 15,2 km/h (3 Bft) O-NO 75 0 min 0,000 mm 0,0 UV-I 0 W/m -3,1 C -8,8 C 20,9 km/h (4 Bft) 95,65 %
19.02.2018 02:54 -1,4 C 3,9 C 88 % 1023,1 hPa 0,0 l/m 11,3 km/h (2 Bft) NO 47 0 min 0,000 mm 0,0 UV-I 0 W/m -3,1 C -6,1 C 16,1 km/h (3 Bft) 95,83 %
19.02.2018 02:55 -1,4 C 3,9 C 88 % 1023,1 hPa 0,0 l/m 15,7 km/h (3 Bft) O-NO 65 0 min 0,000 mm 0,0 UV-I 0 W/m -3,1 C -9,1 C 19,3 km/h (3 Bft) 100,00 %
19.02.2018 02:56 -1,4 C 3,9 C 88 % 1023,1 hPa 0,0 l/m 14,4 km/h (3 Bft) O-NO 70 0 min 0,000 mm 0,0 UV-I 0 W/m -3,1 C -8,3 C 19,3 km/h (3 Bft) 95,83 %
19.02.2018 02:57 -1,4 C 3,9 C 88 % 1023,1 hPa 0,0 l/m 17,9 km/h (3 Bft) O-NO 71 0 min 0,000 mm 0,0 UV-I 0 W/m -3,1 C -10,4 C 22,5 km/h (4 Bft) 100,00 %
19.02.2018 02:58 -1,4 C 3,9 C 87 % 1023,0 hPa 0,0 l/m 16,1 km/h (3 Bft) NO 46 0 min 0,000 mm 0,0 UV-I 0 W/m -3,3 C -9,3 C 20,9 km/h (4 Bft) 95,83 %
19.02.2018 02:59 -1,4 C 3,9 C 88 % 1023,0 hPa 0,0 l/m 17,4 km/h (3 Bft) O 88 0 min 0,000 mm 0,0 UV-I 0 W/m -3,1 C -10,1 C 24,1 km/h (4 Bft) 95,65 %
19.02.2018 03:00 -1,4 C 3,9 C 87 % 1023,0 hPa 0,0 l/m 17,5 km/h (3 Bft) O-NO 75 0 min 0,000 mm 0,0 UV-I 0 W/m -3,3 C -10,1 C 20,9 km/h (4 Bft) 95,83 %
19.02.2018 03:01 -1,4 C 3,9 C 87 % 1023,0 hPa 0,0 l/m 16,1 km/h (3 Bft) O-NO 74 0 min 0,000 mm 0,0 UV-I 0 W/m -3,3 C -9,3 C 20,9 km/h (4 Bft) 100,00 %
19.02.2018 03:02 -1,4 C 3,9 C 87 % 1023,0 hPa 0,0 l/m 17,1 km/h (3 Bft) O 89 0 min 0,000 mm 0,0 UV-I 0 W/m -3,3 C -9,9 C 24,1 km/h (4 Bft) 93,33 %
19.02.2018 03:03 -1,4 C 3,9 C 87 % 1023,0 hPa 0,0 l/m 16,8 km/h (3 Bft) O-NO 63 0 min 0,000 mm 0,0 UV-I 0 W/m -3,3 C -9,8 C 20,9 km/h (4 Bft) 95,45 %
19.02.2018 03:04 -1,4 C 3,9 C 87 % 1023,0 hPa 0,0 l/m 18,6 km/h (3 Bft) O 80 0 min 0,000 mm 0,0 UV-I 0 W/m -3,3 C -10,7 C 22,5 km/h (4 Bft) 100,00 %
19.02.2018 03:05 -1,4 C 3,9 C 86 % 1023,0 hPa 0,0 l/m 19,8 km/h (3 Bft) O 79 0 min 0,000 mm 0,0 UV-I 0 W/m -3,4 C -11,3 C 25,7 km/h (4 Bft) 95,83 %
19.02.2018 03:06 -1,4 C 3,9 C 87 % 1023,0 hPa 0,0 l/m 15,4 km/h (3 Bft) O-NO 71 0 min 0,000 mm 0,0 UV-I 0 W/m -3,3 C -8,9 C 20,9 km/h (4 Bft) 91,30 %
19.02.2018 03:07 -1,4 C 3,9 C 87 % 1023,0 hPa 0,0 l/m 15,0 km/h (3 Bft) O 80 0 min 0,000 mm 0,0 UV-I 0 W/m -3,3 C -8,7 C 19,3 km/h (3 Bft) 100,00 %
19.02.2018 03:08 -1,4 C 3,9 C 87 % 1023,0 hPa 0,0 l/m 16,8 km/h (3 Bft) O-NO 76 0 min 0,000 mm 0,0 UV-I 0 W/m -3,3 C -9,8 C 24,1 km/h (4 Bft) 91,30 %
19.02.2018 03:09 -1,4 C 3,9 C 87 % 1023,0 hPa 0,0 l/m 17,2 km/h (3 Bft) O 80 0 min 0,000 mm 0,0 UV-I 0 W/m -3,3 C -10,0 C 20,9 km/h (4 Bft) 100,00 %
19.02.2018 03:10 -1,5 C 3,9 C 87 % 1023,0 hPa 0,0 l/m 17,8 km/h (3 Bft) O 95 0 min 0,000 mm 0,0 UV-I 0 W/m -3,4 C -10,4 C 24,1 km/h (4 Bft) 95,65 %
19.02.2018 03:11 -1,5 C 3,9 C 87 % 1023,0 hPa 0,0 l/m 16,6 km/h (3 Bft) O 87 0 min 0,000 mm 0,0 UV-I 0 W/m -3,4 C -9,8 C 20,9 km/h (4 Bft) 95,83 %
19.02.2018 03:12 -1,5 C 3,9 C 86 % 1023,0 hPa 0,0 l/m 23,1 km/h (4 Bft) O 92 0 min 0,000 mm 0,0 UV-I 0 W/m -3,5 C -13,0 C 30,6 km/h (5 Bft) 100,00 %
19.02.2018 03:13 -1,5 C 3,9 C 86 % 1023,0 hPa 0,0 l/m 18,8 km/h (3 Bft) O-NO 57 0 min 0,000 mm 0,0 UV-I 0 W/m -3,5 C -11,0 C 24,1 km/h (4 Bft) 95,83 %
19.02.2018 03:14 -1,4 C 3,9 C 86 % 1023,0 hPa 0,0 l/m 17,0 km/h (3 Bft) O 96 0 min 0,000 mm 0,0 UV-I 0 W/m -3,4 C -9,9 C 20,9 km/h (4 Bft) 100,00 %
19.02.2018 03:15 -1,5 C 3,9 C 86 % 1023,0 hPa 0,0 l/m 17,2 km/h (3 Bft) O-NO 71 0 min 0,000 mm 0,0 UV-I 0 W/m -3,5 C -10,1 C 24,1 km/h (4 Bft) 95,83 %
19.02.2018 03:16 -1,5 C 3,9 C 86 % 1022,9 hPa 0,0 l/m 19,7 km/h (3 Bft) O 81 0 min 0,000 mm 0,0 UV-I 0 W/m -3,5 C -11,4 C 25,7 km/h (4 Bft) 100,00 %
19.02.2018 03:17 -1,5 C 3,9 C 86 % 1022,9 hPa 0,0 l/m 19,4 km/h (3 Bft) O 79 0 min 0,000 mm 0,0 UV-I 0 W/m -3,5 C -11,3 C 22,5 km/h (4 Bft) 95,83 %
19.02.2018 03:18 -1,5 C 3,9 C 86 % 1022,8 hPa 0,0 l/m 20,9 km/h (4 Bft) O-NO 69 0 min 0,000 mm 0,0 UV-I 0 W/m -3,5 C -12,0 C 25,7 km/h (4 Bft) 95,65 %
19.02.2018 03:19 -1,5 C 3,9 C 86 % 1022,8 hPa 0,0 l/m 19,3 km/h (3 Bft) O-NO 65 0 min 0,000 mm 0,0 UV-I 0 W/m -3,5 C -11,2 C 24,1 km/h (4 Bft) 100,00 %
19.02.2018 03:20 -1,5 C 3,9 C 86 % 1022,8 hPa 0,0 l/m 18,8 km/h (3 Bft) O-NO 64 0 min 0,000 mm 0,0 UV-I 0 W/m -3,5 C -11,0 C 22,5 km/h (4 Bft) 96,15 %
19.02.2018 03:21 -1,5 C 3,9 C 86 % 1022,8 hPa 0,0 l/m 20,8 km/h (4 Bft) O-NO 65 0 min 0,000 mm 0,0 UV-I 0 W/m -3,5 C -12,0 C 25,7 km/h (4 Bft) 100,00 %
19.02.2018 03:22 -1,5 C 3,9 C 86 % 1022,8 hPa 0,0 l/m 17,9 km/h (3 Bft) O 84 0 min 0,000 mm 0,0 UV-I 0 W/m -3,5 C -10,5 C 20,9 km/h (4 Bft) 91,30 %
19.02.2018 03:23 -1,5 C 3,9 C 86 % 1022,8 hPa 0,0 l/m 17,4 km/h (3 Bft) O-NO 63 0 min 0,000 mm 0,0 UV-I 0 W/m -3,5 C -10,2 C 20,9 km/h (4 Bft) 100,00 %
19.02.2018 03:24 -1,5 C 3,9 C 86 % 1022,8 hPa 0,0 l/m 17,9 km/h (3 Bft) O-NO 62 0 min 0,000 mm 0,0 UV-I 0 W/m -3,5 C -10,5 C 20,9 km/h (4 Bft) 95,65 %
19.02.2018 03:25 -1,6 C 3,9 C 86 % 1022,8 hPa 0,0 l/m 20,5 km/h (4 Bft) O-NO 78 0 min 0,000 mm 0,0 UV-I 0 W/m -3,6 C -11,9 C 24,1 km/h (4 Bft) 95,83 %
19.02.2018 03:26 -1,6 C 3,9 C 86 % 1022,8 hPa 0,0 l/m 21,9 km/h (4 Bft) O 89 0 min 0,000 mm 0,0 UV-I 0 W/m -3,6 C -12,6 C 27,4 km/h (4 Bft) 100,00 %
19.02.2018 03:27 -1,5 C 3,9 C 86 % 1022,8 hPa 0,0 l/m 19,4 km/h (3 Bft) O-NO 76 0 min 0,000 mm 0,0 UV-I 0 W/m -3,5 C -11,3 C 25,7 km/h (4 Bft) 100,00 %
19.02.2018 03:28 -1,6 C 3,9 C 86 % 1022,9 hPa 0,0 l/m 17,4 km/h (3 Bft) O-NO 59 0 min 0,000 mm 0,0 UV-I 0 W/m -3,6 C -10,3 C 22,5 km/h (4 Bft) 100,00 %
19.02.2018 03:29 -1,6 C 3,9 C 86 % 1022,9 hPa 0,0 l/m 14,8 km/h (3 Bft) O 88 0 min 0,000 mm 0,0 UV-I 0 W/m -3,6 C -8,8 C 20,9 km/h (4 Bft) 100,00 %
19.02.2018 03:30 -1,6 C 3,9 C 86 % 1022,9 hPa 0,0 l/m 15,0 km/h (3 Bft) O-NO 69 0 min 0,000 mm 0,0 UV-I 0 W/m -3,6 C -8,9 C 17,7 km/h (3 Bft) 100,00 %
19.02.2018 03:31 -1,6 C 3,9 C 86 % 1022,8 hPa 0,0 l/m 15,4 km/h (3 Bft) O-NO 67 0 min 0,000 mm 0,0 UV-I 0 W/m -3,6 C -9,2 C 17,7 km/h (3 Bft) 100,00 %
19.02.2018 03:32 -1,6 C 3,9 C 86 % 1022,9 hPa 0,0 l/m 17,2 km/h (3 Bft) O-NO 58 0 min 0,000 mm 0,0 UV-I 0 W/m -3,6 C -10,2 C 20,9 km/h (4 Bft) 100,00 %
19.02.2018 03:33 -1,7 C 3,9 C 86 % 1022,8 hPa 0,0 l/m 17,7 km/h (3 Bft) O 82 0 min 0,000 mm 0,0 UV-I 0 W/m -3,7 C -10,6 C 22,5 km/h (4 Bft) 100,00 %
19.02.2018 03:34 -1,7 C 3,9 C 86 % 1022,9 hPa 0,0 l/m 16,0 km/h (3 Bft) O-NO 69 0 min 0,000 mm 0,0 UV-I 0 W/m -3,7 C -9,7 C 22,5 km/h (4 Bft) 96,77 %
19.02.2018 03:35 -1,6 C 3,9 C 86 % 1022,8 hPa 0,0 l/m 18,0 km/h (3 Bft) O 84 0 min 0,000 mm 0,0 UV-I 0 W/m -3,6 C -10,7 C 22,5 km/h (4 Bft) 100,00 %
19.02.2018 03:36 -1,6 C 3,9 C 86 % 1022,8 hPa 0,0 l/m 17,5 km/h (3 Bft) NO 55 0 min 0,000 mm 0,0 UV-I 0 W/m -3,6 C -10,4 C 22,5 km/h (4 Bft) 95,83 %
19.02.2018 03:37 -1,6 C 3,9 C 86 % 1022,8 hPa 0,0 l/m 15,4 km/h (3 Bft) O 86 0 min 0,000 mm 0,0 UV-I 0 W/m -3,6 C -9,2 C 19,3 km/h (3 Bft) 95,65 %
19.02.2018 03:38 -1,6 C 3,9 C 86 % 1022,8 hPa 0,0 l/m 18,0 km/h (3 Bft) O-SO 112 0 min 0,000 mm 0,0 UV-I 0 W/m -3,6 C -10,7 C 22,5 km/h (4 Bft) 95,83 %
19.02.2018 03:39 -1,6 C 3,9 C 86 % 1022,8 hPa 0,0 l/m 15,4 km/h (3 Bft) NO 54 0 min 0,000 mm 0,0 UV-I 0 W/m -3,6 C -9,2 C 19,3 km/h (3 Bft) 92,31 %
19.02.2018 03:40 -1,6 C 3,9 C 86 % 1022,8 hPa 0,0 l/m 12,2 km/h (2 Bft) NO 53 0 min 0,000 mm 0,0 UV-I 0 W/m -3,6 C -7,0 C 17,7 km/h (3 Bft) 100,00 %
19.02.2018 03:41 -1,7 C 3,9 C 86 % 1022,8 hPa 0,0 l/m 12,7 km/h (3 Bft) O-NO 67 0 min 0,000 mm 0,0 UV-I 0 W/m -3,7 C -7,5 C 17,7 km/h (3 Bft) 100,00 %
19.02.2018 03:42 -1,7 C 3,9 C 86 % 1022,8 hPa 0,0 l/m 12,6 km/h (3 Bft) O-NO 69 0 min 0,000 mm 0,0 UV-I 0 W/m -3,7 C -7,4 C 17,7 km/h (3 Bft) 95,65 %
19.02.2018 03:43 -1,7 C 3,9 C 86 % 1022,8 hPa 0,0 l/m 15,0 km/h (3 Bft) O-NO 69 0 min 0,000 mm 0,0 UV-I 0 W/m -3,7 C -9,0 C 20,9 km/h (4 Bft) 95,83 %
19.02.2018 03:44 -1,7 C 3,9 C 86 % 1022,8 hPa 0,0 l/m 16,6 km/h (3 Bft) O-NO 60 0 min 0,000 mm 0,0 UV-I 0 W/m -3,7 C -10,0 C 20,9 km/h (4 Bft) 100,00 %
19.02.2018 03:45 -1,7 C 3,9 C 86 % 1022,8 hPa 0,0 l/m 11,9 km/h (2 Bft) NO 42 0 min 0,000 mm 0,0 UV-I 0 W/m -3,7 C -6,9 C 17,7 km/h (3 Bft) 95,83 %
19.02.2018 03:46 -1,7 C 3,9 C 86 % 1022,8 hPa 0,0 l/m 13,8 km/h (3 Bft) NO 52 0 min 0,000 mm 0,0 UV-I 0 W/m -3,7 C -8,3 C 16,1 km/h (3 Bft) 100,00 %
19.02.2018 03:47 -1,7 C 3,9 C 86 % 1022,8 hPa 0,0 l/m 14,5 km/h (3 Bft) O-NO 76 0 min 0,000 mm 0,0 UV-I 0 W/m -3,7 C -8,7 C 20,9 km/h (4 Bft) 95,83 %
19.02.2018 03:48 -1,7 C 3,9 C 86 % 1022,8 hPa 0,0 l/m 16,1 km/h (3 Bft) O-NO 68 0 min 0,000 mm 0,0 UV-I 0 W/m -3,7 C -9,7 C 22,5 km/h (4 Bft) 95,65 %
19.02.2018 03:49 -1,7 C 3,9 C 86 % 1022,8 hPa 0,0 l/m 14,4 km/h (3 Bft) NO 53 0 min 0,000 mm 0,0 UV-I 0 W/m -3,7 C -8,7 C 17,7 km/h (3 Bft) 95,83 %
19.02.2018 03:50 -1,7 C 3,9 C 86 % 1022,7 hPa 0,0 l/m 14,4 km/h (3 Bft) O 80 0 min 0,000 mm 0,0 UV-I 0 W/m -3,7 C -8,7 C 19,3 km/h (3 Bft) 95,65 %
19.02.2018 03:51 -1,7 C 3,9 C 86 % 1022,7 hPa 0,0 l/m 16,6 km/h (3 Bft) NO 54 0 min 0,000 mm 0,0 UV-I 0 W/m -3,7 C -10,0 C 24,1 km/h (4 Bft) 95,83 %
19.02.2018 03:52 -1,8 C 3,9 C 86 % 1022,7 hPa 0,0 l/m 15,5 km/h (3 Bft) O-NO 70 0 min 0,000 mm 0,0 UV-I 0 W/m -3,8 C -9,5 C 19,3 km/h (3 Bft) 95,65 %
19.02.2018 03:53 -1,8 C 3,9 C 86 % 1022,8 hPa 0,0 l/m 14,2 km/h (3 Bft) O-NO 74 0 min 0,000 mm 0,0 UV-I 0 W/m -3,8 C -8,6 C 20,9 km/h (4 Bft) 100,00 %
19.02.2018 03:54 -1,8 C 3,9 C 86 % 1022,6 hPa 0,0 l/m 15,4 km/h (3 Bft) O 82 0 min 0,000 mm 0,0 UV-I 0 W/m -3,8 C -9,4 C 19,3 km/h (3 Bft) 95,65 %
19.02.2018 03:55 -1,8 C 3,9 C 86 % 1022,7 hPa 0,0 l/m 16,8 km/h (3 Bft) O-NO 66 0 min 0,000 mm 0,0 UV-I 0 W/m -3,8 C -10,3 C 20,9 km/h (4 Bft) 100,00 %
19.02.2018 03:56 -1,8 C 3,9 C 86 % 1022,7 hPa 0,0 l/m 12,1 km/h (2 Bft) O-NO 58 0 min 0,000 mm 0,0 UV-I 0 W/m -3,8 C -7,2 C 20,9 km/h (4 Bft) 91,30 %
19.02.2018 03:57 -1,8 C 3,9 C 86 % 1022,7 hPa 0,0 l/m 13,7 km/h (3 Bft) O-NO 71 0 min 0,000 mm 0,0 UV-I 0 W/m -3,8 C -8,3 C 17,7 km/h (3 Bft) 100,00 %
19.02.2018 03:58 -1,8 C 3,9 C 86 % 1022,7 hPa 0,0 l/m 15,8 km/h (3 Bft) O-NO 61 0 min 0,000 mm 0,0 UV-I 0 W/m -3,8 C -9,7 C 19,3 km/h (3 Bft) 96,15 %
19.02.2018 03:59 -1,8 C 3,9 C 86 % 1022,6 hPa 0,0 l/m 17,0 km/h (3 Bft) NO 51 0 min 0,000 mm 0,0 UV-I 0 W/m -3,8 C -10,4 C 24,1 km/h (4 Bft) 95,83 %
19.02.2018 04:00 -1,8 C 3,9 C 86 % 1022,7 hPa 0,0 l/m 13,6 km/h (3 Bft) NO 43 0 min 0,026 mm 0,0 UV-I 0 W/m -3,8 C -8,2 C 17,7 km/h (3 Bft) 100,00 %
19.02.2018 04:03 -1,9 C 3,9 C 86 % 1022,6 hPa 0,0 l/m 12,7 km/h (3 Bft) NO 53 0 min 0,000 mm 0,0 UV-I 0 W/m -3,9 C -7,7 C 20,9 km/h (4 Bft) 97,62 %
19.02.2018 04:04 -1,9 C 3,9 C 86 % 1022,6 hPa 0,0 l/m 14,8 km/h (3 Bft) O 81 0 min 0,000 mm 0,0 UV-I 0 W/m -3,9 C -9,2 C 19,3 km/h (3 Bft) 95,65 %
19.02.2018 04:05 -1,9 C 3,9 C 86 % 1022,6 hPa 0,0 l/m 17,6 km/h (3 Bft) O-NO 59 0 min 0,000 mm 0,0 UV-I 0 W/m -3,9 C -10,8 C 22,5 km/h (4 Bft) 92,31 %
19.02.2018 04:06 -1,9 C 3,9 C 86 % 1022,6 hPa 0,0 l/m 15,1 km/h (3 Bft) NO 48 0 min 0,000 mm 0,0 UV-I 0 W/m -3,9 C -9,3 C 22,5 km/h (4 Bft) 100,00 %
19.02.2018 04:07 -1,9 C 3,9 C 86 % 1022,6 hPa 0,0 l/m 13,2 km/h (3 Bft) NO 47 0 min 0,000 mm 0,0 UV-I 0 W/m -3,9 C -8,1 C 19,3 km/h (3 Bft) 91,30 %
19.02.2018 04:08 -1,9 C 3,9 C 86 % 1022,6 hPa 0,0 l/m 12,3 km/h (3 Bft) O 94 0 min 0,000 mm 0,0 UV-I 0 W/m -3,9 C -7,4 C 16,1 km/h (3 Bft) 96,30 %
19.02.2018 04:09 -1,9 C 3,9 C 86 % 1022,7 hPa 0,0 l/m 14,4 km/h (3 Bft) NO 53 0 min 0,000 mm 0,0 UV-I 0 W/m -3,9 C -8,9 C 17,7 km/h (3 Bft) 95,65 %
19.02.2018 04:10 -1,9 C 3,9 C 86 % 1022,7 hPa 0,0 l/m 12,7 km/h (3 Bft) O 83 0 min 0,000 mm 0,0 UV-I 0 W/m -3,9 C -7,7 C 17,7 km/h (3 Bft) 100,00 %
19.02.2018 04:11 -1,9 C 3,9 C 85 % 1022,7 hPa 0,0 l/m 12,6 km/h (3 Bft) O-NO 67 0 min 0,000 mm 0,0 UV-I 0 W/m -4,1 C -7,6 C 16,1 km/h (3 Bft) 100,00 %
19.02.2018 04:12 -1,9 C 3,9 C 85 % 1022,6 hPa 0,0 l/m 13,9 km/h (3 Bft) O-NO 60 0 min 0,000 mm 0,0 UV-I 0 W/m -4,1 C -8,6 C 16,1 km/h (3 Bft) 100,00 %
19.02.2018 04:13 -1,9 C 3,9 C 85 % 1022,7 hPa 0,0 l/m 13,4 km/h (3 Bft) O-NO 77 0 min 0,000 mm 0,0 UV-I 0 W/m -4,1 C -8,2 C 17,7 km/h (3 Bft) 100,00 %
19.02.2018 04:14 -1,9 C 3,9 C 86 % 1022,6 hPa 0,0 l/m 14,7 km/h (3 Bft) O-NO 71 0 min 0,000 mm 0,0 UV-I 0 W/m -3,9 C -9,1 C 22,5 km/h (4 Bft) 100,00 %
19.02.2018 04:15 -1,9 C 3,9 C 85 % 1022,6 hPa 0,0 l/m 12,9 km/h (3 Bft) O 84 0 min 0,000 mm 0,0 UV-I 0 W/m -4,1 C -7,9 C 19,3 km/h (3 Bft) 100,00 %
19.02.2018 04:16 -1,9 C 3,9 C 85 % 1022,6 hPa 0,0 l/m 15,0 km/h (3 Bft) O-NO 78 0 min 0,000 mm 0,0 UV-I 0 W/m -4,1 C -9,3 C 20,9 km/h (4 Bft) 100,00 %
19.02.2018 04:17 -1,9 C 3,9 C 85 % 1022,6 hPa 0,0 l/m 16,7 km/h (3 Bft) O 80 0 min 0,000 mm 0,0 UV-I 0 W/m -4,1 C -10,3 C 19,3 km/h (3 Bft) 95,65 %
19.02.2018 04:18 -1,9 C 3,9 C 85 % 1022,6 hPa 0,0 l/m 11,6 km/h (2 Bft) NO 55 0 min 0,000 mm 0,0 UV-I 0 W/m -4,1 C -6,9 C 16,1 km/h (3 Bft) 92,00 %
19.02.2018 04:19 -1,9 C 3,9 C 85 % 1022,6 hPa 0,0 l/m 9,7 km/h (2 Bft) O-NO 70 0 min 0,000 mm 0,0 UV-I 0 W/m -4,1 C -5,3 C 12,9 km/h (3 Bft) 97,44 %
19.02.2018 04:20 -1,9 C 3,9 C 85 % 1022,6 hPa 0,0 l/m 13,2 km/h (3 Bft) O 92 0 min 0,000 mm 0,0 UV-I 0 W/m -4,1 C -8,1 C 16,1 km/h (3 Bft) 100,00 %
19.02.2018 04:21 -1,9 C 3,9 C 85 % 1022,5 hPa 0,0 l/m 17,2 km/h (3 Bft) NO 34 0 min 0,000 mm 0,0 UV-I 0 W/m -4,1 C -10,6 C 22,5 km/h (4 Bft) 100,00 %
19.02.2018 04:22 -1,9 C 3,9 C 85 % 1022,5 hPa 0,0 l/m 12,2 km/h (2 Bft) O-NO 70 0 min 0,000 mm 0,0 UV-I 0 W/m -4,1 C -7,3 C 16,1 km/h (3 Bft) 100,00 %
19.02.2018 04:23 -1,9 C 3,9 C 85 % 1022,5 hPa 0,0 l/m 16,0 km/h (3 Bft) O-NO 74 0 min 0,000 mm 0,0 UV-I 0 W/m -4,1 C -9,9 C 20,9 km/h (4 Bft) 100,00 %
19.02.2018 04:24 -1,9 C 3,9 C 86 % 1022,5 hPa 0,0 l/m 17,5 km/h (3 Bft) NO 53 0 min 0,000 mm 0,0 UV-I 0 W/m -3,9 C -10,8 C 22,5 km/h (4 Bft) 100,00 %
19.02.2018 04:25 -1,9 C 3,9 C 86 % 1022,5 hPa 0,0 l/m 18,8 km/h (3 Bft) O-NO 66 0 min 0,000 mm 0,0 UV-I 0 W/m -3,9 C -11,5 C 24,1 km/h (4 Bft) 100,00 %
19.02.2018 04:26 -1,9 C 3,9 C 86 % 1022,5 hPa 0,0 l/m 16,8 km/h (3 Bft) O 80 0 min 0,000 mm 0,0 UV-I 0 W/m -3,9 C -10,4 C 20,9 km/h (4 Bft) 95,65 %
19.02.2018 04:27 -2,0 C 3,9 C 86 % 1022,5 hPa 0,0 l/m 17,1 km/h (3 Bft) O-NO 61 0 min 0,000 mm 0,0 UV-I 0 W/m -4,0 C -10,7 C 20,9 km/h (4 Bft) 100,00 %
19.02.2018 04:28 -2,0 C 3,9 C 86 % 1022,5 hPa 0,0 l/m 19,0 km/h (3 Bft) NO 44 0 min 0,000 mm 0,0 UV-I 0 W/m -4,0 C -11,7 C 20,9 km/h (4 Bft) 96,15 %
19.02.2018 04:29 -2,0 C 3,9 C 86 % 1022,5 hPa 0,0 l/m 17,3 km/h (3 Bft) O 80 0 min 0,000 mm 0,0 UV-I 0 W/m -4,0 C -10,8 C 24,1 km/h (4 Bft) 100,00 %
19.02.2018 04:30 -1,9 C 3,9 C 86 % 1022,4 hPa 0,0 l/m 16,8 km/h (3 Bft) O-NO 61 0 min 0,000 mm 0,0 UV-I 0 W/m -3,9 C -10,4 C 22,5 km/h (4 Bft) 100,00 %
19.02.2018 04:31 -1,9 C 3,9 C 86 % 1022,4 hPa 0,0 l/m 18,4 km/h (3 Bft) O 86 0 min 0,000 mm 0,0 UV-I 0 W/m -3,9 C -11,3 C 22,5 km/h (4 Bft) 100,00 %
19.02.2018 04:32 -2,0 C 3,9 C 86 % 1022,4 hPa 0,0 l/m 16,6 km/h (3 Bft) O-NO 69 0 min 0,000 mm 0,0 UV-I 0 W/m -4,0 C -10,4 C 19,3 km/h (3 Bft) 100,00 %
19.02.2018 04:33 -2,0 C 3,9 C 86 % 1022,4 hPa 0,0 l/m 17,2 km/h (3 Bft) O-NO 67 0 min 0,000 mm 0,0 UV-I 0 W/m -4,0 C -10,7 C 20,9 km/h (4 Bft) 100,00 %
19.02.2018 04:34 -2,0 C 3,9 C 86 % 1022,4 hPa 0,0 l/m 12,7 km/h (3 Bft) O-NO 71 0 min 0,000 mm 0,0 UV-I 0 W/m -4,0 C -7,8 C 17,7 km/h (3 Bft) 96,15 %
19.02.2018 04:35 -2,0 C 3,9 C 86 % 1022,4 hPa 0,0 l/m 18,8 km/h (3 Bft) O 92 0 min 0,000 mm 0,0 UV-I 0 W/m -4,0 C -11,6 C 24,1 km/h (4 Bft) 95,83 %
19.02.2018 04:36 -2,1 C 3,9 C 86 % 1022,3 hPa 0,0 l/m 17,2 km/h (3 Bft) O-NO 69 0 min 0,000 mm 0,0 UV-I 0 W/m -4,1 C -10,9 C 24,1 km/h (4 Bft) 100,00 %
19.02.2018 04:37 -2,1 C 3,9 C 86 % 1022,3 hPa 0,0 l/m 16,7 km/h (3 Bft) O-NO 76 0 min 0,000 mm 0,0 UV-I 0 W/m -4,1 C -10,6 C 20,9 km/h (4 Bft) 100,00 %
19.02.2018 04:38 -2,1 C 3,9 C 86 % 1022,3 hPa 0,0 l/m 18,3 km/h (3 Bft) O-NO 68 0 min 0,000 mm 0,0 UV-I 0 W/m -4,1 C -11,5 C 24,1 km/h (4 Bft) 100,00 %
19.02.2018 04:39 -2,1 C 3,9 C 87 % 1022,3 hPa 0,0 l/m 19,4 km/h (3 Bft) NO 49 0 min 0,000 mm 0,0 UV-I 0 W/m -4,0 C -12,0 C 25,7 km/h (4 Bft) 100,00 %
19.02.2018 04:40 -2,1 C 3,9 C 87 % 1022,3 hPa 0,0 l/m 21,2 km/h (4 Bft) O 82 0 min 0,000 mm 0,0 UV-I 0 W/m -4,0 C -12,9 C 29,0 km/h (5 Bft) 100,00 %
19.02.2018 04:41 -2,0 C 3,9 C 86 % 1022,2 hPa 0,0 l/m 19,5 km/h (3 Bft) O-NO 68 0 min 0,000 mm 0,0 UV-I 0 W/m -4,0 C -12,0 C 24,1 km/h (4 Bft) 100,00 %
19.02.2018 04:42 -2,1 C 3,9 C 86 % 1022,2 hPa 0,0 l/m 16,4 km/h (3 Bft) O 86 0 min 0,000 mm 0,0 UV-I 0 W/m -4,1 C -10,4 C 20,9 km/h (4 Bft) 100,00 %
19.02.2018 04:43 -2,1 C 3,9 C 86 % 1022,2 hPa 0,0 l/m 15,4 km/h (3 Bft) O-NO 76 0 min 0,000 mm 0,0 UV-I 0 W/m -4,1 C -9,8 C 20,9 km/h (4 Bft) 100,00 %
19.02.2018 04:44 -2,1 C 3,9 C 86 % 1022,2 hPa 0,0 l/m 17,8 km/h (3 Bft) O-NO 62 0 min 0,000 mm 0,0 UV-I 0 W/m -4,1 C -11,2 C 24,1 km/h (4 Bft) 100,00 %
19.02.2018 04:45 -2,1 C 3,9 C 87 % 1022,2 hPa 0,0 l/m 17,2 km/h (3 Bft) O 88 0 min 0,000 mm 0,0 UV-I 0 W/m -4,0 C -10,9 C 20,9 km/h (4 Bft) 95,65 %
19.02.2018 04:46 -2,1 C 3,9 C 87 % 1022,3 hPa 0,0 l/m 16,2 km/h (3 Bft) O-NO 65 0 min 0,000 mm 0,0 UV-I 0 W/m -4,0 C -10,3 C 19,3 km/h (3 Bft) 100,00 %
19.02.2018 04:47 -2,1 C 3,9 C 87 % 1022,3 hPa 0,0 l/m 15,2 km/h (3 Bft) O-NO 76 0 min 0,000 mm 0,0 UV-I 0 W/m -4,0 C -9,7 C 19,3 km/h (3 Bft) 100,00 %
19.02.2018 04:48 -2,1 C 3,9 C 87 % 1022,3 hPa 0,0 l/m 11,9 km/h (2 Bft) O-NO 78 0 min 0,000 mm 0,0 UV-I 0 W/m -4,0 C -7,3 C 14,5 km/h (3 Bft) 100,00 %
19.02.2018 04:49 -2,2 C 3,9 C 87 % 1022,3 hPa 0,0 l/m 13,8 km/h (3 Bft) O-NO 78 0 min 0,000 mm 0,0 UV-I 0 W/m -4,1 C -8,8 C 17,7 km/h (3 Bft) 100,00 %
19.02.2018 04:50 -2,2 C 3,9 C 87 % 1022,3 hPa 0,0 l/m 14,2 km/h (3 Bft) NO 46 0 min 0,000 mm 0,0 UV-I 0 W/m -4,1 C -9,1 C 17,7 km/h (3 Bft) 100,00 %
19.02.2018 04:51 -2,2 C 3,9 C 87 % 1022,4 hPa 0,0 l/m 13,4 km/h (3 Bft) O-NO 58 0 min 0,000 mm 0,0 UV-I 0 W/m -4,1 C -8,6 C 16,1 km/h (3 Bft) 100,00 %
19.02.2018 04:52 -2,2 C 3,9 C 87 % 1022,3 hPa 0,0 l/m 14,7 km/h (3 Bft) O-NO 76 0 min 0,000 mm 0,0 UV-I 0 W/m -4,1 C -9,5 C 20,9 km/h (4 Bft) 100,00 %
19.02.2018 04:53 -2,2 C 3,9 C 87 % 1022,3 hPa 0,0 l/m 9,7 km/h (2 Bft) O-NO 71 0 min 0,000 mm 0,0 UV-I 0 W/m -4,1 C -5,6 C 16,1 km/h (3 Bft) 100,00 %
19.02.2018 04:54 -2,2 C 3,9 C 87 % 1022,4 hPa 0,0 l/m 12,4 km/h (3 Bft) O-NO 74 0 min 0,000 mm 0,0 UV-I 0 W/m -4,1 C -7,8 C 17,7 km/h (3 Bft) 100,00 %
19.02.2018 04:55 -2,2 C 3,9 C 87 % 1022,4 hPa 0,0 l/m 12,2 km/h (2 Bft) O 82 0 min 0,000 mm 0,0 UV-I 0 W/m -4,1 C -7,7 C 16,1 km/h (3 Bft) 95,65 %
19.02.2018 04:56 -2,2 C 3,9 C 87 % 1022,4 hPa 0,0 l/m 12,6 km/h (3 Bft) O-NO 61 0 min 0,000 mm 0,0 UV-I 0 W/m -4,1 C -8,0 C 16,1 km/h (3 Bft) 100,00 %
19.02.2018 04:57 -2,2 C 3,9 C 87 % 1022,4 hPa 0,0 l/m 9,9 km/h (2 Bft) O-NO 67 0 min 0,000 mm 0,0 UV-I 0 W/m -4,1 C -5,8 C 14,5 km/h (3 Bft) 95,65 %
19.02.2018 04:58 -2,3 C 3,9 C 87 % 1022,4 hPa 0,0 l/m 11,5 km/h (2 Bft) O 101 0 min 0,000 mm 0,0 UV-I 0 W/m -4,2 C -7,3 C 16,1 km/h (3 Bft) 100,00 %
19.02.2018 04:59 -2,3 C 3,9 C 87 % 1022,4 hPa 0,0 l/m 7,5 km/h (2 Bft) O-NO 69 0 min 0,000 mm 0,0 UV-I 0 W/m -4,2 C -3,5 C 14,5 km/h (3 Bft) 100,00 %
19.02.2018 05:00 -2,3 C 3,9 C 87 % 1022,4 hPa 0,0 l/m 13,9 km/h (3 Bft) O 80 0 min 0,025 mm 0,0 UV-I 0 W/m -4,2 C -9,0 C 19,3 km/h (3 Bft) 100,00 %
19.02.2018 05:01 -2,3 C 3,9 C 87 % 1022,4 hPa 0,0 l/m 12,8 km/h (3 Bft) O-NO 68 0 min 0,000 mm 0,0 UV-I 0 W/m -4,2 C -8,3 C 22,5 km/h (4 Bft) 100,00 %
19.02.2018 05:02 -2,3 C 3,9 C 87 % 1022,4 hPa 0,0 l/m 15,2 km/h (3 Bft) O 82 0 min 0,000 mm 0,0 UV-I 0 W/m -4,2 C -9,9 C 19,3 km/h (3 Bft) 100,00 %
19.02.2018 05:03 -2,3 C 3,9 C 87 % 1022,3 hPa 0,0 l/m 13,5 km/h (3 Bft) O-NO 59 0 min 0,000 mm 0,0 UV-I 0 W/m -4,2 C -8,8 C 20,9 km/h (4 Bft) 95,83 %
19.02.2018 05:04 -2,3 C 3,9 C 88 % 1022,3 hPa 0,0 l/m 14,3 km/h (3 Bft) NO 55 0 min 0,000 mm 0,0 UV-I 0 W/m -4,0 C -9,3 C 17,7 km/h (3 Bft) 100,00 %
19.02.2018 05:05 -2,3 C 3,9 C 88 % 1022,2 hPa 0,0 l/m 17,6 km/h (3 Bft) O-NO 77 0 min 0,000 mm 0,0 UV-I 0 W/m -4,0 C -11,3 C 20,9 km/h (4 Bft) 100,00 %
19.02.2018 05:06 -2,3 C 3,9 C 88 % 1022,2 hPa 0,0 l/m 12,0 km/h (2 Bft) NO 48 0 min 0,000 mm 0,0 UV-I 0 W/m -4,0 C -7,6 C 17,7 km/h (3 Bft) 100,00 %
19.02.2018 05:07 -2,3 C 3,9 C 88 % 1022,2 hPa 0,0 l/m 12,7 km/h (3 Bft) N-NO 28 0 min 0,000 mm 0,0 UV-I 0 W/m -4,0 C -8,2 C 17,7 km/h (3 Bft) 100,00 %
19.02.2018 05:08 -2,3 C 3,9 C 88 % 1022,2 hPa 0,0 l/m 15,1 km/h (3 Bft) NO 44 0 min 0,000 mm 0,0 UV-I 0 W/m -4,0 C -9,8 C 20,9 km/h (4 Bft) 100,00 %
19.02.2018 05:09 -2,3 C 3,9 C 88 % 1022,2 hPa 0,0 l/m 17,2 km/h (3 Bft) O 82 0 min 0,000 mm 0,0 UV-I 0 W/m -4,0 C -11,1 C 22,5 km/h (4 Bft) 100,00 %
19.02.2018 05:10 -2,3 C 3,9 C 88 % 1022,2 hPa 0,0 l/m 13,2 km/h (3 Bft) NO 42 0 min 0,000 mm 0,0 UV-I 0 W/m -4,0 C -8,5 C 17,7 km/h (3 Bft) 100,00 %
19.02.2018 05:11 -2,3 C 3,9 C 88 % 1022,2 hPa 0,0 l/m 13,1 km/h (3 Bft) O 85 0 min 0,000 mm 0,0 UV-I 0 W/m -4,0 C -8,5 C 17,7 km/h (3 Bft) 95,83 %
19.02.2018 05:12 -2,3 C 3,9 C 88 % 1022,1 hPa 0,0 l/m 13,7 km/h (3 Bft) O-NO 68 0 min 0,000 mm 0,0 UV-I 0 W/m -4,0 C -8,9 C 17,7 km/h (3 Bft) 100,00 %
19.02.2018 05:13 -2,3 C 3,9 C 88 % 1022,1 hPa 0,0 l/m 11,5 km/h (2 Bft) O 81 0 min 0,000 mm 0,0 UV-I 0 W/m -4,0 C -7,3 C 19,3 km/h (3 Bft) 91,67 %
19.02.2018 05:14 -2,4 C 3,9 C 88 % 1022,1 hPa 0,0 l/m 12,9 km/h (3 Bft) O-NO 72 0 min 0,000 mm 0,0 UV-I 0 W/m -4,1 C -8,4 C 17,7 km/h (3 Bft) 100,00 %
19.02.2018 05:15 -2,4 C 3,9 C 88 % 1022,1 hPa 0,0 l/m 13,5 km/h (3 Bft) O 81 0 min 0,000 mm 0,0 UV-I 0 W/m -4,1 C -8,9 C 17,7 km/h (3 Bft) 100,00 %
19.02.2018 05:16 -2,4 C 3,9 C 88 % 1022,1 hPa 0,0 l/m 13,9 km/h (3 Bft) O-NO 68 0 min 0,000 mm 0,0 UV-I 0 W/m -4,1 C -9,2 C 17,7 km/h (3 Bft) 100,00 %
19.02.2018 05:17 -2,4 C 3,9 C 88 % 1022,1 hPa 0,0 l/m 18,0 km/h (3 Bft) O-NO 69 0 min 0,000 mm 0,0 UV-I 0 W/m -4,1 C -11,7 C 22,5 km/h (4 Bft) 100,00 %
19.02.2018 05:18 -2,4 C 3,9 C 88 % 1022,1 hPa 0,0 l/m 17,2 km/h (3 Bft) O-NO 64 0 min 0,000 mm 0,0 UV-I 0 W/m -4,1 C -11,2 C 19,3 km/h (3 Bft) 100,00 %
19.02.2018 05:19 -2,4 C 3,9 C 88 % 1022,1 hPa 0,0 l/m 15,1 km/h (3 Bft) NO 54 0 min 0,000 mm 0,0 UV-I 0 W/m -4,1 C -10,0 C 17,7 km/h (3 Bft) 95,65 %
19.02.2018 05:20 -2,4 C 3,9 C 88 % 1022,1 hPa 0,0 l/m 13,6 km/h (3 Bft) O-SO 115 0 min 0,000 mm 0,0 UV-I 0 W/m -4,1 C -8,9 C 17,7 km/h (3 Bft) 100,00 %
19.02.2018 05:21 -2,4 C 3,9 C 89 % 1022,1 hPa 0,0 l/m 15,2 km/h (3 Bft) O-NO 71 0 min 0,000 mm 0,0 UV-I 0 W/m -4,0 C -10,0 C 19,3 km/h (3 Bft) 100,00 %
19.02.2018 05:22 -2,4 C 3,9 C 89 % 1022,1 hPa 0,0 l/m 16,3 km/h (3 Bft) O-NO 74 0 min 0,000 mm 0,0 UV-I 0 W/m -4,0 C -10,7 C 17,7 km/h (3 Bft) 100,00 %
19.02.2018 05:23 -2,4 C 3,9 C 89 % 1022,0 hPa 0,0 l/m 16,2 km/h (3 Bft) O-NO 78 0 min 0,000 mm 0,0 UV-I 0 W/m -4,0 C -10,6 C 19,3 km/h (3 Bft) 96,15 %
19.02.2018 05:24 -2,5 C 3,9 C 88 % 1022,1 hPa 0,0 l/m 16,6 km/h (3 Bft) O-NO 66 0 min 0,000 mm 0,0 UV-I 0 W/m -4,2 C -11,0 C 20,9 km/h (4 Bft) 100,00 %
19.02.2018 05:25 -2,5 C 3,9 C 88 % 1022,1 hPa 0,0 l/m 14,9 km/h (3 Bft) O-SO 107 0 min 0,000 mm 0,0 UV-I 0 W/m -4,2 C -9,9 C 19,3 km/h (3 Bft) 100,00 %
19.02.2018 05:26 -2,5 C 3,9 C 89 % 1022,1 hPa 0,0 l/m 15,6 km/h (3 Bft) O-NO 59 0 min 0,000 mm 0,0 UV-I 0 W/m -4,1 C -10,4 C 17,7 km/h (3 Bft) 100,00 %
19.02.2018 05:27 -2,5 C 3,9 C 89 % 1022,1 hPa 0,0 l/m 16,5 km/h (3 Bft) O-NO 67 0 min 0,000 mm 0,0 UV-I 0 W/m -4,1 C -10,9 C 20,9 km/h (4 Bft) 100,00 %
19.02.2018 05:28 -2,5 C 3,9 C 89 % 1022,0 hPa 0,0 l/m 16,5 km/h (3 Bft) O-NO 67 0 min 0,000 mm 0,0 UV-I 0 W/m -4,1 C -10,9 C 20,9 km/h (4 Bft) 95,83 %
19.02.2018 05:29 -2,5 C 3,9 C 89 % 1022,0 hPa 0,0 l/m 15,2 km/h (3 Bft) O-NO 71 0 min 0,000 mm 0,0 UV-I 0 W/m -4,1 C -10,1 C 17,7 km/h (3 Bft) 100,00 %
19.02.2018 05:30 -2,5 C 3,9 C 89 % 1022,0 hPa 0,0 l/m 14,1 km/h (3 Bft) O-NO 76 0 min 0,000 mm 0,0 UV-I 0 W/m -4,1 C -9,4 C 19,3 km/h (3 Bft) 100,00 %
19.02.2018 05:31 -2,6 C 3,9 C 89 % 1022,0 hPa 0,0 l/m 17,3 km/h (3 Bft) O-NO 61 0 min 0,000 mm 0,0 UV-I 0 W/m -4,2 C -11,5 C 20,9 km/h (4 Bft) 100,00 %
19.02.2018 05:32 -2,6 C 3,9 C 89 % 1022,0 hPa 0,0 l/m 15,3 km/h (3 Bft) O-NO 78 0 min 0,000 mm 0,0 UV-I 0 W/m -4,2 C -10,3 C 20,9 km/h (4 Bft) 100,00 %
19.02.2018 05:33 -2,6 C 3,9 C 89 % 1022,0 hPa 0,0 l/m 18,1 km/h (3 Bft) O-SO 118 0 min 0,000 mm 0,0 UV-I 0 W/m -4,2 C -12,0 C 22,5 km/h (4 Bft) 100,00 %
19.02.2018 05:34 -2,6 C 3,9 C 89 % 1022,0 hPa 0,0 l/m 17,0 km/h (3 Bft) NO 52 0 min 0,000 mm 0,0 UV-I 0 W/m -4,2 C -11,4 C 20,9 km/h (4 Bft) 100,00 %
19.02.2018 05:35 -2,6 C 3,9 C 89 % 1022,0 hPa 0,0 l/m 19,0 km/h (3 Bft) O-NO 67 0 min 0,000 mm 0,0 UV-I 0 W/m -4,2 C -12,5 C 22,5 km/h (4 Bft) 100,00 %
19.02.2018 05:36 -2,6 C 3,9 C 89 % 1022,0 hPa 0,0 l/m 15,1 km/h (3 Bft) O 81 0 min 0,000 mm 0,0 UV-I 0 W/m -4,2 C -10,2 C 20,9 km/h (4 Bft) 100,00 %
19.02.2018 05:37 -2,6 C 3,9 C 89 % 1022,0 hPa 0,0 l/m 14,1 km/h (3 Bft) O-NO 78 0 min 0,000 mm 0,0 UV-I 0 W/m -4,2 C -9,5 C 19,3 km/h (3 Bft) 100,00 %
19.02.2018 05:38 -2,6 C 3,9 C 89 % 1021,9 hPa 0,0 l/m 16,3 km/h (3 Bft) O 101 0 min 0,000 mm 0,0 UV-I 0 W/m -4,2 C -10,9 C 22,5 km/h (4 Bft) 95,65 %
19.02.2018 05:39 -2,6 C 3,9 C 89 % 1021,9 hPa 0,0 l/m 16,6 km/h (3 Bft) O 86 0 min 0,000 mm 0,0 UV-I 0 W/m -4,2 C -11,1 C 22,5 km/h (4 Bft) 100,00 %
19.02.2018 05:40 -2,6 C 3,9 C 89 % 1021,9 hPa 0,0 l/m 18,2 km/h (3 Bft) O-NO 65 0 min 0,000 mm 0,0 UV-I 0 W/m -4,2 C -12,0 C 24,1 km/h (4 Bft) 96,15 %
19.02.2018 05:41 -2,6 C 3,9 C 89 % 1021,9 hPa 0,0 l/m 18,1 km/h (3 Bft) O-NO 69 0 min 0,000 mm 0,0 UV-I 0 W/m -4,2 C -12,0 C 22,5 km/h (4 Bft) 95,83 %
19.02.2018 05:42 -2,6 C 3,9 C 89 % 1021,9 hPa 0,0 l/m 14,8 km/h (3 Bft) O-NO 72 0 min 0,000 mm 0,0 UV-I 0 W/m -4,2 C -10,0 C 19,3 km/h (3 Bft) 91,30 %
19.02.2018 05:43 -2,6 C 3,9 C 89 % 1021,9 hPa 0,0 l/m 16,4 km/h (3 Bft) O-NO 76 0 min 0,000 mm 0,0 UV-I 0 W/m -4,2 C -11,0 C 20,9 km/h (4 Bft) 95,83 %
19.02.2018 05:44 -2,6 C 3,9 C 89 % 1021,9 hPa 0,0 l/m 17,2 km/h (3 Bft) O-NO 78 0 min 0,000 mm 0,0 UV-I 0 W/m -4,2 C -11,5 C 20,9 km/h (4 Bft) 100,00 %
19.02.2018 05:45 -2,6 C 3,9 C 89 % 1021,8 hPa 0,0 l/m 17,0 km/h (3 Bft) O-NO 69 0 min 0,000 mm 0,0 UV-I 0 W/m -4,2 C -11,4 C 22,5 km/h (4 Bft) 95,83 %
19.02.2018 05:46 -2,6 C 3,9 C 89 % 1021,8 hPa 0,0 l/m 16,0 km/h (3 Bft) O-NO 73 0 min 0,000 mm 0,0 UV-I 0 W/m -4,2 C -10,8 C 19,3 km/h (3 Bft) 95,65 %
19.02.2018 05:47 -2,6 C 3,9 C 89 % 1021,8 hPa 0,0 l/m 14,6 km/h (3 Bft) O-NO 66 0 min 0,000 mm 0,0 UV-I 0 W/m -4,2 C -9,9 C 17,7 km/h (3 Bft) 95,83 %
19.02.2018 05:48 -2,6 C 3,9 C 89 % 1021,8 hPa 0,0 l/m 16,4 km/h (3 Bft) O-NO 74 0 min 0,000 mm 0,0 UV-I 0 W/m -4,2 C -11,0 C 20,9 km/h (4 Bft) 100,00 %
19.02.2018 05:49 -2,6 C 3,9 C 89 % 1021,8 hPa 0,0 l/m 14,8 km/h (3 Bft) O-NO 68 0 min 0,000 mm 0,0 UV-I 0 W/m -4,2 C -10,0 C 17,7 km/h (3 Bft) 91,67 %
19.02.2018 05:50 -2,6 C 3,9 C 89 % 1021,8 hPa 0,0 l/m 16,1 km/h (3 Bft) O 88 0 min 0,000 mm 0,0 UV-I 0 W/m -4,2 C -10,8 C 19,3 km/h (3 Bft) 100,00 %
19.02.2018 05:51 -2,7 C 3,9 C 89 % 1021,8 hPa 0,0 l/m 15,6 km/h (3 Bft) O-NO 69 0 min 0,000 mm 0,0 UV-I 0 W/m -4,3 C -10,6 C 19,3 km/h (3 Bft) 95,83 %
19.02.2018 05:52 -2,7 C 3,9 C 89 % 1021,7 hPa 0,0 l/m 13,5 km/h (3 Bft) O-NO 75 0 min 0,000 mm 0,0 UV-I 0 W/m -4,3 C -9,2 C 16,1 km/h (3 Bft) 96,15 %
19.02.2018 05:53 -2,7 C 3,9 C 89 % 1021,8 hPa 0,0 l/m 13,9 km/h (3 Bft) O 85 0 min 0,000 mm 0,0 UV-I 0 W/m -4,3 C -9,5 C 16,1 km/h (3 Bft) 95,83 %
19.02.2018 05:54 -2,7 C 3,9 C 89 % 1021,7 hPa 0,0 l/m 15,2 km/h (3 Bft) O 84 0 min 0,000 mm 0,0 UV-I 0 W/m -4,3 C -10,4 C 19,3 km/h (3 Bft) 88,46 %
19.02.2018 05:55 -2,7 C 3,9 C 89 % 1021,7 hPa 0,0 l/m 14,3 km/h (3 Bft) O-NO 61 0 min 0,000 mm 0,0 UV-I 0 W/m -4,3 C -9,8 C 17,7 km/h (3 Bft) 100,00 %
19.02.2018 05:56 -2,7 C 3,9 C 89 % 1021,7 hPa 0,0 l/m 16,7 km/h (3 Bft) O-NO 68 0 min 0,000 mm 0,0 UV-I 0 W/m -4,3 C -11,3 C 20,9 km/h (4 Bft) 91,30 %
19.02.2018 05:57 -2,7 C 3,9 C 89 % 1021,7 hPa 0,0 l/m 15,8 km/h (3 Bft) O-NO 76 0 min 0,000 mm 0,0 UV-I 0 W/m -4,3 C -10,8 C 20,9 km/h (4 Bft) 100,00 %
19.02.2018 05:58 -2,7 C 3,9 C 89 % 1021,7 hPa 0,0 l/m 14,3 km/h (3 Bft) O 84 0 min 0,000 mm 0,0 UV-I 0 W/m -4,3 C -9,8 C 17,7 km/h (3 Bft) 95,65 %
19.02.2018 05:59 -2,7 C 3,9 C 89 % 1021,7 hPa 0,0 l/m 14,8 km/h (3 Bft) O 80 0 min 0,000 mm 0,0 UV-I 0 W/m -4,3 C -10,1 C 17,7 km/h (3 Bft) 95,83 %
19.02.2018 06:00 -2,8 C 3,9 C 90 % 1021,7 hPa 0,0 l/m 16,3 km/h (3 Bft) O-NO 73 0 min 0,000 mm 0,0 UV-I 0 W/m -4,2 C -11,2 C 19,3 km/h (3 Bft) 95,83 %
19.02.2018 06:01 -2,8 C 3,9 C 90 % 1021,6 hPa 0,0 l/m 16,2 km/h (3 Bft) NO 54 0 min 0,000 mm 0,0 UV-I 0 W/m -4,2 C -11,1 C 17,7 km/h (3 Bft) 95,65 %
19.02.2018 06:02 -2,8 C 3,9 C 90 % 1021,6 hPa 0,0 l/m 16,8 km/h (3 Bft) NO 45 0 min 0,000 mm 0,0 UV-I 0 W/m -4,2 C -11,5 C 20,9 km/h (4 Bft) 100,00 %
19.02.2018 06:03 -2,8 C 3,9 C 90 % 1021,7 hPa 0,0 l/m 15,9 km/h (3 Bft) O 80 0 min 0,000 mm 0,0 UV-I 0 W/m -4,2 C -10,9 C 20,9 km/h (4 Bft) 95,65 %
19.02.2018 06:04 -2,8 C 3,9 C 90 % 1021,7 hPa 0,0 l/m 13,5 km/h (3 Bft) O-NO 75 0 min 0,000 mm 0,0 UV-I 0 W/m -4,2 C -9,3 C 16,1 km/h (3 Bft) 100,00 %
19.02.2018 06:05 -2,8 C 3,9 C 90 % 1021,7 hPa 0,0 l/m 13,5 km/h (3 Bft) O-NO 72 0 min 0,000 mm 0,0 UV-I 0 W/m -4,2 C -9,3 C 17,7 km/h (3 Bft) 95,65 %
19.02.2018 06:06 -2,8 C 3,9 C 90 % 1021,8 hPa 0,0 l/m 12,9 km/h (3 Bft) O 89 0 min 0,000 mm 0,0 UV-I 0 W/m -4,2 C -8,9 C 17,7 km/h (3 Bft) 91,67 %
19.02.2018 06:07 -2,8 C 3,9 C 90 % 1021,7 hPa 0,0 l/m 15,2 km/h (3 Bft) O-NO 67 0 min 0,000 mm 0,0 UV-I 0 W/m -4,2 C -10,5 C 20,9 km/h (4 Bft) 100,00 %
19.02.2018 06:08 -2,8 C 3,9 C 90 % 1021,8 hPa 0,0 l/m 11,7 km/h (2 Bft) O-NO 65 0 min 0,000 mm 0,0 UV-I 0 W/m -4,2 C -8,0 C 14,5 km/h (3 Bft) 91,67 %
19.02.2018 06:09 -2,8 C 3,9 C 90 % 1021,8 hPa 0,0 l/m 12,9 km/h (3 Bft) NO 49 0 min 0,000 mm 0,0 UV-I 0 W/m -4,2 C -8,9 C 17,7 km/h (3 Bft) 100,00 %
19.02.2018 06:10 -2,8 C 3,9 C 90 % 1021,8 hPa 0,0 l/m 12,5 km/h (3 Bft) O-NO 73 0 min 0,000 mm 0,0 UV-I 0 W/m -4,2 C -8,6 C 17,7 km/h (3 Bft) 91,67 %
19.02.2018 06:11 -2,8 C 3,9 C 90 % 1021,8 hPa 0,0 l/m 13,8 km/h (3 Bft) O-NO 76 0 min 0,000 mm 0,0 UV-I 0 W/m -4,2 C -9,6 C 17,7 km/h (3 Bft) 100,00 %
19.02.2018 06:12 -2,8 C 3,9 C 90 % 1021,8 hPa 0,0 l/m 15,5 km/h (3 Bft) O-NO 77 0 min 0,000 mm 0,0 UV-I 0 W/m -4,2 C -10,7 C 20,9 km/h (4 Bft) 91,67 %
19.02.2018 06:13 -2,8 C 3,9 C 90 % 1021,7 hPa 0,0 l/m 17,0 km/h (3 Bft) O-NO 69 0 min 0,000 mm 0,0 UV-I 0 W/m -4,2 C -11,6 C 20,9 km/h (4 Bft) 100,00 %
19.02.2018 06:14 -2,8 C 3,9 C 90 % 1021,8 hPa 0,0 l/m 14,4 km/h (3 Bft) O-NO 78 0 min 0,000 mm 0,0 UV-I 0 W/m -4,2 C -10,0 C 17,7 km/h (3 Bft) 91,67 %
19.02.2018 06:15 -2,8 C 3,9 C 90 % 1021,7 hPa 0,0 l/m 13,3 km/h (3 Bft) O-NO 59 0 min 0,000 mm 0,0 UV-I 0 W/m -4,2 C -9,2 C 16,1 km/h (3 Bft) 95,65 %
19.02.2018 06:16 -2,8 C 3,9 C 90 % 1021,7 hPa 0,0 l/m 11,9 km/h (2 Bft) NO 44 0 min 0,000 mm 0,0 UV-I 0 W/m -4,2 C -8,1 C 16,1 km/h (3 Bft) 100,00 %
19.02.2018 06:17 -2,8 C 3,9 C 90 % 1021,7 hPa 0,0 l/m 9,7 km/h (2 Bft) O 92 0 min 0,000 mm 0,0 UV-I 0 W/m -4,2 C -6,3 C 12,9 km/h (3 Bft) 91,30 %
19.02.2018 06:18 -2,8 C 3,9 C 90 % 1021,7 hPa 0,0 l/m 11,8 km/h (2 Bft) O-NO 69 0 min 0,000 mm 0,0 UV-I 0 W/m -4,2 C -8,1 C 16,1 km/h (3 Bft) 100,00 %
19.02.2018 06:19 -2,8 C 3,9 C 90 % 1021,8 hPa 0,0 l/m 11,3 km/h (2 Bft) O 96 0 min 0,000 mm 0,0 UV-I 0 W/m -4,2 C -7,7 C 16,1 km/h (3 Bft) 97,14 %
19.02.2018 06:20 -2,9 C 3,9 C 90 % 1021,8 hPa 0,0 l/m 13,9 km/h (3 Bft) O-NO 58 0 min 0,000 mm 0,0 UV-I 0 W/m -4,3 C -9,7 C 17,7 km/h (3 Bft) 100,00 %
19.02.2018 06:21 -2,9 C 3,9 C 90 % 1021,8 hPa 0,0 l/m 10,5 km/h (2 Bft) O-NO 78 0 min 0,000 mm 0,0 UV-I 0 W/m -4,3 C -7,1 C 14,5 km/h (3 Bft) 95,83 %
19.02.2018 06:22 -2,9 C 3,9 C 90 % 1021,8 hPa 0,0 l/m 14,9 km/h (3 Bft) O-NO 71 0 min 0,000 mm 0,0 UV-I 0 W/m -4,3 C -10,4 C 20,9 km/h (4 Bft) 100,00 %
19.02.2018 06:23 -2,9 C 3,9 C 90 % 1021,8 hPa 0,0 l/m 12,5 km/h (3 Bft) O-NO 66 0 min 0,000 mm 0,0 UV-I 0 W/m -4,3 C -8,7 C 16,1 km/h (3 Bft) 91,67 %
19.02.2018 06:24 -2,9 C 3,9 C 90 % 1021,7 hPa 0,0 l/m 10,9 km/h (2 Bft) NO 44 0 min 0,000 mm 0,0 UV-I 0 W/m -4,3 C -7,4 C 16,1 km/h (3 Bft) 100,00 %
19.02.2018 06:25 -2,9 C 3,9 C 90 % 1021,7 hPa 0,0 l/m 12,0 km/h (2 Bft) O-NO 69 0 min 0,000 mm 0,0 UV-I 0 W/m -4,3 C -8,3 C 17,7 km/h (3 Bft) 95,83 %
19.02.2018 06:26 -2,9 C 3,9 C 90 % 1021,7 hPa 0,0 l/m 10,6 km/h (2 Bft) O-NO 59 0 min 0,000 mm 0,0 UV-I 0 W/m -4,3 C -7,2 C 17,7 km/h (3 Bft) 100,00 %
19.02.2018 06:27 -2,9 C 3,9 C 90 % 1021,7 hPa 0,0 l/m 11,9 km/h (2 Bft) O-NO 74 0 min 0,000 mm 0,0 UV-I 0 W/m -4,3 C -8,3 C 16,1 km/h (3 Bft) 95,83 %
19.02.2018 06:28 -3,0 C 3,9 C 90 % 1021,7 hPa 0,0 l/m 14,0 km/h (3 Bft) O-NO 65 0 min 0,000 mm 0,0 UV-I 0 W/m -4,4 C -9,9 C 19,3 km/h (3 Bft) 100,00 %
19.02.2018 06:29 -3,0 C 3,9 C 90 % 1021,7 hPa 0,0 l/m 12,0 km/h (2 Bft) O-NO 57 0 min 0,000 mm 0,0 UV-I 0 W/m -4,4 C -8,5 C 14,5 km/h (3 Bft) 95,83 %
19.02.2018 06:30 -3,0 C 3,9 C 90 % 1021,7 hPa 0,0 l/m 12,4 km/h (3 Bft) O-NO 63 0 min 0,000 mm 0,0 UV-I 0 W/m -4,4 C -8,8 C 17,7 km/h (3 Bft) 96,15 %
19.02.2018 06:31 -3,0 C 3,9 C 90 % 1021,7 hPa 0,0 l/m 13,1 km/h (3 Bft) O-NO 68 0 min 0,000 mm 0,0 UV-I 0 W/m -4,4 C -9,3 C 17,7 km/h (3 Bft) 100,00 %
19.02.2018 06:32 -3,0 C 3,9 C 90 % 1021,7 hPa 0,0 l/m 12,7 km/h (3 Bft) NO 50 0 min 0,000 mm 0,0 UV-I 0 W/m -4,4 C -9,0 C 17,7 km/h (3 Bft) 95,65 %
19.02.2018 06:33 -3,0 C 3,9 C 90 % 1021,7 hPa 0,0 l/m 10,4 km/h (2 Bft) O-NO 71 0 min 0,000 mm 0,0 UV-I 0 W/m -4,4 C -7,1 C 16,1 km/h (3 Bft) 100,00 %
19.02.2018 06:34 -3,0 C 3,9 C 90 % 1021,7 hPa 0,0 l/m 11,6 km/h (2 Bft) O 81 0 min 0,000 mm 0,0 UV-I 0 W/m -4,4 C -8,1 C 16,1 km/h (3 Bft) 95,65 %
19.02.2018 06:35 -3,0 C 3,9 C 90 % 1021,7 hPa 0,0 l/m 13,8 km/h (3 Bft) O 79 0 min 0,000 mm 0,0 UV-I 0 W/m -4,4 C -9,8 C 19,3 km/h (3 Bft) 95,83 %
19.02.2018 06:36 -3,0 C 3,9 C 90 % 1021,7 hPa 0,0 l/m 13,3 km/h (3 Bft) O 80 0 min 0,000 mm 0,0 UV-I 0 W/m -4,4 C -9,4 C 19,3 km/h (3 Bft) 91,30 %
19.02.2018 06:37 -3,1 C 3,9 C 90 % 1021,7 hPa 0,0 l/m 12,4 km/h (3 Bft) O 88 0 min 0,000 mm 0,0 UV-I 0 W/m -4,5 C -8,9 C 16,1 km/h (3 Bft) 100,00 %
19.02.2018 06:38 -3,0 C 3,9 C 90 % 1021,7 hPa 0,0 l/m 16,7 km/h (3 Bft) O 85 0 min 0,000 mm 0,0 UV-I 0 W/m -4,4 C -11,7 C 22,5 km/h (4 Bft) 91,67 %
19.02.2018 06:39 -3,1 C 3,9 C 90 % 1021,6 hPa 0,0 l/m 11,7 km/h (2 Bft) O-NO 66 0 min 0,000 mm 0,0 UV-I 0 W/m -4,5 C -8,3 C 16,1 km/h (3 Bft) 95,65 %
19.02.2018 06:40 -3,1 C 3,9 C 90 % 1021,6 hPa 0,0 l/m 16,2 km/h (3 Bft) O-NO 67 0 min 0,000 mm 0,0 UV-I 0 W/m -4,5 C -11,5 C 24,1 km/h (4 Bft) 100,00 %
19.02.2018 06:41 -3,1 C 3,9 C 90 % 1021,6 hPa 0,0 l/m 16,0 km/h (3 Bft) O-NO 74 0 min 0,000 mm 0,0 UV-I 0 W/m -4,5 C -11,4 C 24,1 km/h (4 Bft) 91,30 %
19.02.2018 06:42 -3,1 C 3,9 C 91 % 1021,7 hPa 0,0 l/m 14,6 km/h (3 Bft) O-NO 70 0 min 0,000 mm 0,0 UV-I 0 W/m -4,4 C -10,5 C 16,1 km/h (3 Bft) 100,00 %
19.02.2018 06:43 -3,1 C 3,9 C 91 % 1021,7 hPa 0,0 l/m 11,9 km/h (2 Bft) O 81 0 min 0,000 mm 0,0 UV-I 0 W/m -4,4 C -8,5 C 14,5 km/h (3 Bft) 91,30 %
19.02.2018 06:44 -3,1 C 3,9 C 91 % 1021,6 hPa 0,0 l/m 12,4 km/h (3 Bft) O-NO 63 0 min 0,000 mm 0,0 UV-I 0 W/m -4,4 C -8,9 C 17,7 km/h (3 Bft) 100,00 %
19.02.2018 06:45 -3,1 C 3,9 C 91 % 1021,6 hPa 0,0 l/m 15,1 km/h (3 Bft) O 86 0 min 0,000 mm 0,0 UV-I 0 W/m -4,4 C -10,8 C 17,7 km/h (3 Bft) 95,65 %
19.02.2018 06:46 -3,1 C 3,9 C 91 % 1021,6 hPa 0,0 l/m 14,4 km/h (3 Bft) O-NO 65 0 min 0,000 mm 0,0 UV-I 0 W/m -4,4 C -10,3 C 17,7 km/h (3 Bft) 100,00 %
_ Min-Zeit 06:37 00:00 04:11 06:01 - 04:59 - - - - - - 06:37 03:12 00:30 05:54
Minimum _ -3,1 C 3,9 C 85 % 1021,6 hPa - 7,5 km/h (2 Bft) - - - - - - -4,5 C -13,0 C 9,7 km/h (2 Bft) 88,46 %
_ Max-Zeit 00:14 00:00 00:00 00:00 01:02 03:12 - - 00:00 04:00 00:00 00:00 00:00 00:30 03:12 00:00
Maximum _ -0,7 C 3,9 C 91 % 1024,6 hPa 0,2 l/m 23,1 km/h
O (4 Bft)
- - 0 min 0,026 mm 0,0 UV-I 0 W/m -2,1 C -2,3 C 30,6 km/h
O-NO (5 Bft)
100,00 %
Durchschnitt _ -1,7 C 3,9 C 88 % 1023,0 hPa #0,2 l/m 14,7 km/h (3 Bft) O-NO - #0 min. #0,076 mm 0,0 UV-I 0 W/m -3,4 C -8,7 C 19,3 km/h (3 Bft) 97,93 %